Time,TemperatureF,DewpointF,PressureIn,WindDirection,WindDirectionDegrees,WindSpeedMPH,WindSpeedGustMPH,Humidity,HourlyPrecipIn,Conditions,Clouds,dailyrainin,SoftwareType,DateUTC
2013-05-15 00:01:00,72.9,49.1,30.95,SSW,193,10.5,10.5,43,0.00,,,0.00,VWS V13.01,2013-05-15 05:01:00,
2013-05-15 00:02:00,72.9,49.1,30.95,SSW,202,11.9,11.9,43,0.00,,,0.00,VWS V13.01,2013-05-15 05:02:00,
2013-05-15 00:06:00,72.9,49.1,30.95,South,173,11.4,11.4,43,0.00,,,0.00,VWS V13.01,2013-05-15 05:06:00,
2013-05-15 00:07:00,72.9,49.1,30.95,South,182,12.8,12.8,43,0.00,,,0.00,VWS V13.01,2013-05-15 05:07:00,
2013-05-15 00:11:00,73.0,49.2,30.95,South,183,10.5,10.5,43,0.00,,,0.00,VWS V13.01,2013-05-15 05:11:00,
2013-05-15 00:12:00,73.0,49.2,30.95,South,171,11.9,11.9,43,0.00,,,0.00,VWS V13.01,2013-05-15 05:12:00,
2013-05-15 00:16:00,73.0,49.2,30.95,South,189,11.4,11.4,43,0.00,,,0.00,VWS V13.01,2013-05-15 05:16:00,
2013-05-15 00:17:00,73.0,49.2,30.95,South,189,11.4,11.4,43,0.00,,,0.00,VWS V13.01,2013-05-15 05:17:00,
2013-05-15 00:21:00,72.9,49.1,30.95,South,190,10.1,10.1,43,0.00,,,0.00,VWS V13.01,2013-05-15 05:21:00,
2013-05-15 00:22:00,72.9,49.1,30.95,South,186,10.5,10.5,43,0.00,,,0.00,VWS V13.01,2013-05-15 05:22:00,
2013-05-15 00:26:00,72.9,49.1,30.95,SSW,200,11.0,11.0,43,0.00,,,0.00,VWS V13.01,2013-05-15 05:26:00,
2013-05-15 00:27:00,72.9,49.1,30.95,South,186,12.8,12.8,43,0.00,,,0.00,VWS V13.01,2013-05-15 05:27:00,
2013-05-15 00:32:00,72.9,49.1,30.95,South,184,12.3,12.3,43,0.00,,,0.00,VWS V13.01,2013-05-15 05:32:00,
2013-05-15 00:37:00,72.7,48.9,30.95,South,188,8.7,8.7,43,0.00,,,0.00,VWS V13.01,2013-05-15 05:37:00,
2013-05-15 00:42:00,72.3,48.6,30.95,South,186,13.2,13.2,43,0.00,,,0.00,VWS V13.01,2013-05-15 05:42:00,
2013-05-15 00:43:00,72.5,48.8,30.95,South,188,8.1,8.1,43,0.00,,,0.00,VWS V13.01,2013-05-15 05:43:00,
2013-05-15 00:47:00,72.3,48.6,30.95,South,191,8.3,8.3,43,0.00,,,0.00,VWS V13.01,2013-05-15 05:47:00,
2013-05-15 00:48:00,72.7,48.9,30.95,South,186,8.1,8.1,43,0.00,,,0.00,VWS V13.01,2013-05-15 05:48:00,
2013-05-15 00:52:00,72.7,48.9,30.95,South,184,10.5,10.5,43,0.00,,,0.00,VWS V13.01,2013-05-15 05:52:00,
2013-05-15 00:53:00,72.5,48.8,30.95,South,186,10.1,10.1,43,0.00,,,0.00,VWS V13.01,2013-05-15 05:53:00,
2013-05-15 00:57:00,72.5,48.8,30.95,South,187,12.8,12.8,43,0.00,,,0.00,VWS V13.01,2013-05-15 05:57:00,
2013-05-15 00:58:00,72.5,48.8,30.95,South,177,10.5,10.5,43,0.00,,,0.00,VWS V13.01,2013-05-15 05:58:00,
2013-05-15 01:02:00,72.3,48.6,30.95,South,182,11.0,11.0,43,0.00,,,0.00,VWS V13.01,2013-05-15 06:02:00,
2013-05-15 01:03:00,72.3,48.6,30.95,South,189,8.1,8.1,43,0.00,,,0.00,VWS V13.01,2013-05-15 06:03:00,
2013-05-15 01:07:00,72.0,48.3,30.95,SSW,193,12.3,12.3,43,0.00,,,0.00,VWS V13.01,2013-05-15 06:07:00,
2013-05-15 01:08:00,72.0,48.3,30.95,South,189,10.1,10.1,43,0.00,,,0.00,VWS V13.01,2013-05-15 06:08:00,
2013-05-15 01:12:00,71.4,51.3,30.95,South,184,8.7,8.7,49,0.00,,,0.00,VWS V13.01,2013-05-15 06:12:00,
2013-05-15 01:13:00,71.4,51.3,30.95,SSW,196,10.5,10.5,49,0.00,,,0.00,VWS V13.01,2013-05-15 06:13:00,
2013-05-15 01:17:00,72.0,48.3,30.95,South,188,11.0,11.0,43,0.00,,,0.00,VWS V13.01,2013-05-15 06:17:00,
2013-05-15 01:18:00,72.0,48.3,30.95,South,188,11.0,11.0,43,0.00,,,0.00,VWS V13.01,2013-05-15 06:18:00,
2013-05-15 01:22:00,71.8,48.1,30.95,South,190,8.7,8.7,43,0.00,,,0.00,VWS V13.01,2013-05-15 06:22:00,
2013-05-15 01:23:00,71.8,48.1,30.95,South,187,10.1,10.1,43,0.00,,,0.00,VWS V13.01,2013-05-15 06:23:00,
2013-05-15 01:27:00,71.2,51.1,30.95,South,180,10.1,10.1,49,0.00,,,0.00,VWS V13.01,2013-05-15 06:27:00,
2013-05-15 01:28:00,71.1,51.0,30.95,South,180,10.1,10.1,49,0.00,,,0.00,VWS V13.01,2013-05-15 06:28:00,
2013-05-15 01:32:00,71.1,51.0,30.95,South,178,8.7,8.7,49,0.00,,,0.00,VWS V13.01,2013-05-15 06:32:00,
2013-05-15 01:33:00,71.1,51.0,30.95,SSW,195,8.1,8.1,49,0.00,,,0.00,VWS V13.01,2013-05-15 06:33:00,
2013-05-15 01:37:00,70.9,50.8,30.95,South,191,6.7,6.7,49,0.00,,,0.00,VWS V13.01,2013-05-15 06:37:00,
2013-05-15 01:38:00,70.9,50.8,30.95,South,188,8.1,8.1,49,0.00,,,0.00,VWS V13.01,2013-05-15 06:38:00,
2013-05-15 01:42:00,70.5,50.5,30.95,SSW,193,8.1,8.1,49,0.00,,,0.00,VWS V13.01,2013-05-15 06:42:00,
2013-05-15 01:43:00,70.5,50.5,30.95,South,187,10.1,10.1,49,0.00,,,0.00,VWS V13.01,2013-05-15 06:43:00,
2013-05-15 01:47:00,70.7,50.6,30.95,South,173,10.1,10.1,49,0.00,,,0.00,VWS V13.01,2013-05-15 06:47:00,
2013-05-15 01:48:00,70.7,50.6,30.95,South,190,7.2,7.2,49,0.00,,,0.00,VWS V13.01,2013-05-15 06:48:00,
2013-05-15 01:49:00,70.5,50.5,30.95,SSW,192,8.1,8.1,49,0.00,,,0.00,VWS V13.01,2013-05-15 06:49:00,
2013-05-15 01:52:00,70.5,50.5,30.95,SSW,202,8.7,8.7,49,0.00,,,0.00,VWS V13.01,2013-05-15 06:52:00,
2013-05-15 01:53:00,70.5,50.5,30.95,South,178,8.7,8.7,49,0.00,,,0.00,VWS V13.01,2013-05-15 06:53:00,
2013-05-15 01:54:00,70.5,50.5,30.95,SSW,192,8.1,8.1,49,0.00,,,0.00,VWS V13.01,2013-05-15 06:54:00,
2013-05-15 01:57:00,70.5,50.5,30.95,SSW,196,8.1,8.1,49,0.00,,,0.00,VWS V13.01,2013-05-15 06:57:00,
2013-05-15 01:58:00,70.3,50.3,30.95,SSW,197,8.1,8.1,49,0.00,,,0.00,VWS V13.01,2013-05-15 06:58:00,
2013-05-15 01:59:00,70.2,50.1,30.95,South,179,8.1,8.1,49,0.00,,,0.00,VWS V13.01,2013-05-15 06:59:00,
2013-05-15 02:02:00,70.3,50.3,30.95,South,189,7.6,7.6,49,0.00,,,0.00,VWS V13.01,2013-05-15 07:02:00,
2013-05-15 02:03:00,70.3,50.3,30.95,South,182,8.7,8.7,49,0.00,,,0.00,VWS V13.01,2013-05-15 07:03:00,
2013-05-15 02:04:00,70.5,50.5,30.95,South,185,9.6,9.6,49,0.00,,,0.00,VWS V13.01,2013-05-15 07:04:00,
2013-05-15 02:08:00,70.5,50.5,30.95,South,190,8.3,8.3,49,0.00,,,0.00,VWS V13.01,2013-05-15 07:08:00,
2013-05-15 02:09:00,70.5,50.5,30.95,SSW,195,8.3,8.3,49,0.00,,,0.00,VWS V13.01,2013-05-15 07:09:00,
2013-05-15 02:13:00,70.3,50.3,30.95,SSW,194,8.7,8.7,49,0.00,,,0.00,VWS V13.01,2013-05-15 07:13:00,
2013-05-15 02:14:00,70.2,50.1,30.95,South,191,8.1,8.1,49,0.00,,,0.00,VWS V13.01,2013-05-15 07:14:00,
2013-05-15 02:18:00,70.2,50.1,30.95,South,187,10.1,10.1,49,0.00,,,0.00,VWS V13.01,2013-05-15 07:18:00,
2013-05-15 02:19:00,70.2,50.1,30.95,South,187,12.8,12.8,49,0.00,,,0.00,VWS V13.01,2013-05-15 07:19:00,
2013-05-15 02:23:00,70.0,50.0,30.95,South,178,11.0,11.0,49,0.00,,,0.00,VWS V13.01,2013-05-15 07:23:00,
2013-05-15 02:24:00,70.0,50.0,30.95,SSW,194,8.3,8.3,49,0.00,,,0.00,VWS V13.01,2013-05-15 07:24:00,
2013-05-15 02:28:00,70.0,50.0,30.95,SSE,168,8.1,8.1,49,0.00,,,0.00,VWS V13.01,2013-05-15 07:28:00,
2013-05-15 02:29:00,70.0,50.0,30.95,South,185,8.1,8.1,49,0.00,,,0.00,VWS V13.01,2013-05-15 07:29:00,
2013-05-15 02:33:00,69.6,49.6,30.95,SSW,195,8.7,8.7,49,0.00,,,0.00,VWS V13.01,2013-05-15 07:33:00,
2013-05-15 02:34:00,69.8,49.8,30.95,SSW,207,7.6,7.6,49,0.00,,,0.00,VWS V13.01,2013-05-15 07:34:00,
2013-05-15 02:38:00,69.8,49.8,30.95,South,187,6.3,6.3,49,0.00,,,0.00,VWS V13.01,2013-05-15 07:38:00,
2013-05-15 02:39:00,69.8,49.8,30.95,South,184,8.7,8.7,49,0.00,,,0.00,VWS V13.01,2013-05-15 07:39:00,
2013-05-15 02:43:00,69.6,49.6,30.95,SSW,195,8.3,8.3,49,0.00,,,0.00,VWS V13.01,2013-05-15 07:43:00,
2013-05-15 02:44:00,69.6,49.6,30.95,SSW,195,5.8,5.8,49,0.00,,,0.00,VWS V13.01,2013-05-15 07:44:00,
2013-05-15 02:48:00,69.8,49.8,30.95,South,182,11.0,11.0,49,0.00,,,0.00,VWS V13.01,2013-05-15 07:48:00,
2013-05-15 02:49:00,69.6,49.6,30.95,South,184,5.4,5.4,49,0.00,,,0.00,VWS V13.01,2013-05-15 07:49:00,
2013-05-15 02:53:00,69.1,49.1,30.95,South,182,8.1,8.1,49,0.00,,,0.00,VWS V13.01,2013-05-15 07:53:00,
2013-05-15 02:54:00,69.1,49.1,30.95,South,191,5.8,5.8,49,0.00,,,0.00,VWS V13.01,2013-05-15 07:54:00,
2013-05-15 02:58:00,69.1,49.1,30.95,SSW,205,5.8,5.8,49,0.00,,,0.00,VWS V13.01,2013-05-15 07:58:00,
2013-05-15 02:59:00,68.9,49.0,30.95,South,180,8.3,8.3,49,0.00,,,0.00,VWS V13.01,2013-05-15 07:59:00,
2013-05-15 03:03:00,69.3,49.3,30.95,South,188,6.3,6.3,49,0.00,,,0.00,VWS V13.01,2013-05-15 08:03:00,
2013-05-15 03:04:00,69.3,49.3,30.95,South,178,8.7,8.7,49,0.00,,,0.00,VWS V13.01,2013-05-15 08:04:00,
2013-05-15 03:05:00,69.6,49.6,30.95,South,185,8.3,8.3,49,0.00,,,0.00,VWS V13.01,2013-05-15 08:05:00,
2013-05-15 03:08:00,68.9,49.0,30.95,South,180,8.3,8.3,49,0.00,,,0.00,VWS V13.01,2013-05-15 08:08:00,
2013-05-15 03:09:00,68.9,49.0,30.95,South,191,5.8,5.8,49,0.00,,,0.00,VWS V13.01,2013-05-15 08:09:00,
2013-05-15 03:10:00,69.1,49.1,30.95,SSW,200,11.0,11.0,49,0.00,,,0.00,VWS V13.01,2013-05-15 08:10:00,
2013-05-15 03:13:00,68.9,49.0,30.95,South,190,8.3,8.3,49,0.00,,,0.00,VWS V13.01,2013-05-15 08:13:00,
2013-05-15 03:14:00,68.9,49.0,30.95,South,186,6.7,6.7,49,0.00,,,0.00,VWS V13.01,2013-05-15 08:14:00,
2013-05-15 03:15:00,68.9,49.0,30.95,SSW,199,6.3,6.3,49,0.00,,,0.00,VWS V13.01,2013-05-15 08:15:00,
2013-05-15 03:18:00,68.5,48.6,30.95,SSW,198,8.1,8.1,49,0.00,,,0.00,VWS V13.01,2013-05-15 08:18:00,
2013-05-15 03:19:00,68.4,48.5,30.95,South,178,6.3,6.3,49,0.00,,,0.00,VWS V13.01,2013-05-15 08:19:00,
2013-05-15 03:20:00,68.4,48.5,30.95,SSW,198,5.8,5.8,49,0.00,,,0.00,VWS V13.01,2013-05-15 08:20:00,
2013-05-15 03:23:00,68.5,48.6,30.95,South,182,8.7,8.7,49,0.00,,,0.00,VWS V13.01,2013-05-15 08:23:00,
2013-05-15 03:24:00,68.7,48.8,30.95,South,183,10.5,10.5,49,0.00,,,0.00,VWS V13.01,2013-05-15 08:24:00,
2013-05-15 03:25:00,68.9,49.0,30.95,SSW,193,10.1,10.1,49,0.00,,,0.00,VWS V13.01,2013-05-15 08:25:00,
2013-05-15 03:28:00,68.9,49.0,30.95,South,179,7.2,7.2,49,0.00,,,0.00,VWS V13.01,2013-05-15 08:28:00,
2013-05-15 03:29:00,68.7,48.8,30.95,South,191,8.7,8.7,49,0.00,,,0.00,VWS V13.01,2013-05-15 08:29:00,
2013-05-15 03:30:00,69.1,49.1,30.95,SSW,198,11.0,11.0,49,0.00,,,0.00,VWS V13.01,2013-05-15 08:30:00,
2013-05-15 03:33:00,68.9,49.0,30.95,South,183,8.3,8.3,49,0.00,,,0.00,VWS V13.01,2013-05-15 08:33:00,
2013-05-15 03:34:00,68.7,48.8,30.95,South,191,8.1,8.1,49,0.00,,,0.00,VWS V13.01,2013-05-15 08:34:00,
2013-05-15 03:35:00,68.9,49.0,30.95,South,186,6.3,6.3,49,0.00,,,0.00,VWS V13.01,2013-05-15 08:35:00,
2013-05-15 03:38:00,68.4,48.5,30.95,SSW,198,7.6,7.6,49,0.00,,,0.00,VWS V13.01,2013-05-15 08:38:00,
2013-05-15 03:39:00,68.4,48.5,30.95,SSW,194,7.2,7.2,49,0.00,,,0.00,VWS V13.01,2013-05-15 08:39:00,
2013-05-15 03:40:00,68.4,48.5,30.95,South,189,6.3,6.3,49,0.00,,,0.00,VWS V13.01,2013-05-15 08:40:00,
2013-05-15 03:43:00,68.4,48.5,30.95,South,189,7.6,7.6,49,0.00,,,0.00,VWS V13.01,2013-05-15 08:43:00,
2013-05-15 03:44:00,68.5,48.6,30.95,SSW,192,8.3,8.3,49,0.00,,,0.00,VWS V13.01,2013-05-15 08:44:00,
2013-05-15 03:45:00,68.4,48.5,30.95,South,187,7.2,7.2,49,0.00,,,0.00,VWS V13.01,2013-05-15 08:45:00,
2013-05-15 03:48:00,68.2,48.3,30.95,South,189,8.3,8.3,49,0.00,,,0.00,VWS V13.01,2013-05-15 08:48:00,
2013-05-15 03:49:00,68.4,48.5,30.95,South,186,8.3,8.3,49,0.00,,,0.00,VWS V13.01,2013-05-15 08:49:00,
2013-05-15 03:50:00,68.2,48.3,30.95,SSW,194,8.3,8.3,49,0.00,,,0.00,VWS V13.01,2013-05-15 08:50:00,
2013-05-15 03:53:00,68.2,48.3,30.95,South,189,8.7,8.7,49,0.00,,,0.00,VWS V13.01,2013-05-15 08:53:00,
2013-05-15 03:54:00,68.2,48.3,30.95,SSW,197,8.3,8.3,49,0.00,,,0.00,VWS V13.01,2013-05-15 08:54:00,
2013-05-15 03:55:00,68.0,48.2,30.95,South,187,10.1,10.1,49,0.00,,,0.00,VWS V13.01,2013-05-15 08:55:00,
2013-05-15 03:58:00,68.0,48.2,30.95,South,190,7.2,7.2,49,0.00,,,0.00,VWS V13.01,2013-05-15 08:58:00,
2013-05-15 03:59:00,68.0,48.2,30.95,South,190,7.2,7.2,49,0.00,,,0.00,VWS V13.01,2013-05-15 08:59:00,
2013-05-15 04:00:00,68.0,48.2,30.95,South,188,7.6,7.6,49,0.00,,,0.00,VWS V13.01,2013-05-15 09:00:00,
2013-05-15 04:04:00,67.8,48.0,30.95,SSW,196,8.1,8.1,49,0.00,,,0.00,VWS V13.01,2013-05-15 09:04:00,
2013-05-15 04:05:00,67.8,48.0,30.95,SSW,197,8.3,8.3,49,0.00,,,0.00,VWS V13.01,2013-05-15 09:05:00,
2013-05-15 04:09:00,67.6,47.8,30.95,South,180,8.1,8.1,49,0.00,,,0.00,VWS V13.01,2013-05-15 09:09:00,
2013-05-15 04:10:00,67.6,47.8,30.95,South,186,9.2,9.2,49,0.00,,,0.00,VWS V13.01,2013-05-15 09:10:00,
2013-05-15 04:14:00,67.5,47.7,30.95,South,178,7.6,7.6,49,0.00,,,0.00,VWS V13.01,2013-05-15 09:14:00,
2013-05-15 04:15:00,67.5,47.7,30.95,South,183,10.1,10.1,49,0.00,,,0.00,VWS V13.01,2013-05-15 09:15:00,
2013-05-15 04:16:00,67.6,47.8,30.95,South,185,7.6,7.6,49,0.00,,,0.00,VWS V13.01,2013-05-15 09:16:00,
2013-05-15 04:19:00,67.5,47.7,30.95,South,181,8.3,8.3,49,0.00,,,0.00,VWS V13.01,2013-05-15 09:19:00,
2013-05-15 04:20:00,67.3,47.5,30.95,South,187,8.1,8.1,49,0.00,,,0.00,VWS V13.01,2013-05-15 09:20:00,
2013-05-15 04:21:00,67.5,47.7,30.95,South,189,8.3,8.3,49,0.00,,,0.00,VWS V13.01,2013-05-15 09:21:00,
2013-05-15 04:24:00,67.3,47.5,30.95,SSW,195,5.8,5.8,49,0.00,,,0.00,VWS V13.01,2013-05-15 09:24:00,
2013-05-15 04:25:00,67.1,47.3,30.95,South,188,6.7,6.7,49,0.00,,,0.00,VWS V13.01,2013-05-15 09:25:00,
2013-05-15 04:27:00,67.1,47.3,30.95,South,189,8.1,8.1,49,0.00,,,0.00,VWS V13.01,2013-05-15 09:27:00,
2013-05-15 04:28:00,66.9,47.2,30.95,South,185,8.3,8.3,49,0.00,,,0.00,VWS V13.01,2013-05-15 09:28:00,
2013-05-15 04:29:00,66.9,47.2,30.95,SSW,195,7.6,7.6,49,0.00,,,0.00,VWS V13.01,2013-05-15 09:29:00,
2013-05-15 04:30:00,66.9,47.2,30.95,SSW,195,7.6,7.6,49,0.00,,,0.00,VWS V13.01,2013-05-15 09:30:00,
2013-05-15 04:32:00,66.7,47.0,30.95,South,182,8.7,8.7,49,0.00,,,0.00,VWS V13.01,2013-05-15 09:32:00,
2013-05-15 04:34:00,66.9,47.2,30.95,South,191,8.1,8.1,49,0.00,,,0.00,VWS V13.01,2013-05-15 09:34:00,
2013-05-15 04:35:00,66.9,47.2,30.95,SSW,196,10.1,10.1,49,0.00,,,0.00,VWS V13.01,2013-05-15 09:35:00,
2013-05-15 04:37:00,67.1,47.3,30.95,South,191,6.3,6.3,49,0.00,,,0.00,VWS V13.01,2013-05-15 09:37:00,
2013-05-15 04:39:00,66.9,47.2,30.95,SSW,194,8.1,8.1,49,0.00,,,0.00,VWS V13.01,2013-05-15 09:39:00,
2013-05-15 04:40:00,66.9,47.2,30.95,South,188,8.1,8.1,49,0.00,,,0.00,VWS V13.01,2013-05-15 09:40:00,
2013-05-15 04:41:00,66.9,47.2,30.95,South,183,8.3,8.3,49,0.00,,,0.00,VWS V13.01,2013-05-15 09:41:00,
2013-05-15 04:42:00,66.9,47.2,30.95,South,184,9.2,9.2,49,0.00,,,0.00,VWS V13.01,2013-05-15 09:42:00,
2013-05-15 04:44:00,67.3,47.5,30.95,South,183,7.6,7.6,49,0.00,,,0.00,VWS V13.01,2013-05-15 09:44:00,
2013-05-15 04:45:00,67.1,47.3,30.95,South,190,8.1,8.1,49,0.00,,,0.00,VWS V13.01,2013-05-15 09:45:00,
2013-05-15 04:46:00,66.9,47.2,30.95,SSW,194,8.7,8.7,49,0.00,,,0.00,VWS V13.01,2013-05-15 09:46:00,
2013-05-15 04:47:00,67.3,47.5,30.95,South,185,7.6,7.6,49,0.00,,,0.00,VWS V13.01,2013-05-15 09:47:00,
2013-05-15 04:49:00,66.9,47.2,30.95,SSW,193,7.2,7.2,49,0.00,,,0.00,VWS V13.01,2013-05-15 09:49:00,
2013-05-15 04:50:00,66.7,47.0,30.95,South,188,8.1,8.1,49,0.00,,,0.00,VWS V13.01,2013-05-15 09:50:00,
2013-05-15 04:51:00,66.7,47.0,30.95,South,184,8.1,8.1,49,0.00,,,0.00,VWS V13.01,2013-05-15 09:51:00,
2013-05-15 04:52:00,67.1,47.3,30.95,South,183,8.3,8.3,49,0.00,,,0.00,VWS V13.01,2013-05-15 09:52:00,
2013-05-15 04:54:00,66.9,47.2,30.95,SSW,194,7.6,7.6,49,0.00,,,0.00,VWS V13.01,2013-05-15 09:54:00,
2013-05-15 04:55:00,66.9,47.2,30.95,South,183,5.8,5.8,49,0.00,,,0.00,VWS V13.01,2013-05-15 09:55:00,
2013-05-15 04:56:00,66.7,47.0,30.95,SSW,195,5.8,5.8,49,0.00,,,0.00,VWS V13.01,2013-05-15 09:56:00,
2013-05-15 04:57:00,66.9,47.2,30.95,South,188,8.1,8.1,49,0.00,,,0.00,VWS V13.01,2013-05-15 09:57:00,
2013-05-15 04:59:00,66.7,47.0,30.95,SSW,209,6.3,6.3,49,0.00,,,0.00,VWS V13.01,2013-05-15 09:59:00,
2013-05-15 05:00:00,66.7,47.0,30.95,SSW,197,5.8,5.8,49,0.00,,,0.00,VWS V13.01,2013-05-15 10:00:00,
2013-05-15 05:01:00,66.6,46.8,30.95,South,190,6.3,6.3,49,0.00,,,0.00,VWS V13.01,2013-05-15 10:01:00,
2013-05-15 05:03:00,66.4,46.7,30.95,South,177,5.4,5.4,49,0.00,,,0.00,VWS V13.01,2013-05-15 10:03:00,
2013-05-15 05:04:00,66.2,46.5,30.95,South,177,7.6,7.6,49,0.00,,,0.00,VWS V13.01,2013-05-15 10:04:00,
2013-05-15 05:05:00,66.2,46.5,30.95,SSW,193,6.3,6.3,49,0.00,,,0.00,VWS V13.01,2013-05-15 10:05:00,
2013-05-15 05:06:00,66.4,46.7,30.95,South,184,10.1,10.1,49,0.00,,,0.00,VWS V13.01,2013-05-15 10:06:00,
2013-05-15 05:08:00,66.6,46.8,30.95,South,177,6.3,6.3,49,0.00,,,0.00,VWS V13.01,2013-05-15 10:08:00,
2013-05-15 05:09:00,66.4,46.7,30.95,South,184,10.5,10.5,49,0.00,,,0.00,VWS V13.01,2013-05-15 10:09:00,
2013-05-15 05:10:00,66.4,46.7,30.95,SSW,193,6.3,6.3,49,0.00,,,0.00,VWS V13.01,2013-05-15 10:10:00,
2013-05-15 05:11:00,66.4,46.7,30.95,SSW,192,8.3,8.3,49,0.00,,,0.00,VWS V13.01,2013-05-15 10:11:00,
2013-05-15 05:13:00,66.2,46.5,30.98,SSW,193,5.4,5.4,49,0.00,,,0.00,VWS V13.01,2013-05-15 10:13:00,
2013-05-15 05:14:00,66.2,46.5,30.98,SSW,206,6.3,6.3,49,0.00,,,0.00,VWS V13.01,2013-05-15 10:14:00,
2013-05-15 05:15:00,66.2,46.5,30.98,South,191,5.8,5.8,49,0.00,,,0.00,VWS V13.01,2013-05-15 10:15:00,
2013-05-15 05:16:00,66.2,46.5,30.98,SSW,192,5.8,5.8,49,0.00,,,0.00,VWS V13.01,2013-05-15 10:16:00,
2013-05-15 05:18:00,66.2,46.5,30.98,SSW,198,6.3,6.3,49,0.00,,,0.00,VWS V13.01,2013-05-15 10:18:00,
2013-05-15 05:19:00,66.4,46.7,30.98,SSW,197,7.6,7.6,49,0.00,,,0.00,VWS V13.01,2013-05-15 10:19:00,
2013-05-15 05:20:00,66.2,46.5,30.98,South,191,6.3,6.3,49,0.00,,,0.00,VWS V13.01,2013-05-15 10:20:00,
2013-05-15 05:21:00,66.4,46.7,30.98,SSW,193,8.3,8.3,49,0.00,,,0.00,VWS V13.01,2013-05-15 10:21:00,
2013-05-15 05:23:00,66.7,47.0,30.98,South,185,8.1,8.1,49,0.00,,,0.00,VWS V13.01,2013-05-15 10:23:00,
2013-05-15 05:24:00,66.7,47.0,30.98,South,185,8.1,8.1,49,0.00,,,0.00,VWS V13.01,2013-05-15 10:24:00,
2013-05-15 05:25:00,66.7,47.0,30.98,South,187,8.1,8.1,49,0.00,,,0.00,VWS V13.01,2013-05-15 10:25:00,
2013-05-15 05:26:00,66.7,47.0,30.98,SSW,195,6.3,6.3,49,0.00,,,0.00,VWS V13.01,2013-05-15 10:26:00,
2013-05-15 05:28:00,66.6,46.8,30.98,South,187,9.6,9.6,49,0.00,,,0.00,VWS V13.01,2013-05-15 10:28:00,
2013-05-15 05:29:00,66.6,46.8,30.98,SSW,194,7.6,7.6,49,0.00,,,0.00,VWS V13.01,2013-05-15 10:29:00,
2013-05-15 05:30:00,66.6,46.8,30.98,SSE,163,8.1,8.1,49,0.00,,,0.00,VWS V13.01,2013-05-15 10:30:00,
2013-05-15 05:31:00,66.7,47.0,30.98,South,188,7.6,7.6,49,0.00,,,0.00,VWS V13.01,2013-05-15 10:31:00,
2013-05-15 05:33:00,66.6,46.8,30.98,SSW,198,8.1,8.1,49,0.00,,,0.00,VWS V13.01,2013-05-15 10:33:00,
2013-05-15 05:34:00,66.6,46.8,30.98,South,183,7.2,7.2,49,0.00,,,0.00,VWS V13.01,2013-05-15 10:34:00,
2013-05-15 05:35:00,66.6,46.8,30.98,South,190,6.7,6.7,49,0.00,,,0.00,VWS V13.01,2013-05-15 10:35:00,
2013-05-15 05:36:00,66.4,46.7,30.98,South,177,8.1,8.1,49,0.00,,,0.00,VWS V13.01,2013-05-15 10:36:00,
2013-05-15 05:38:00,66.6,46.8,30.98,South,178,7.6,7.6,49,0.00,,,0.00,VWS V13.01,2013-05-15 10:38:00,
2013-05-15 05:39:00,66.4,46.7,30.98,South,180,8.1,8.1,49,0.00,,,0.00,VWS V13.01,2013-05-15 10:39:00,
2013-05-15 05:40:00,66.4,46.7,30.98,South,188,8.1,8.1,49,0.00,,,0.00,VWS V13.01,2013-05-15 10:40:00,
2013-05-15 05:41:00,66.2,46.5,30.98,South,189,7.6,7.6,49,0.00,,,0.00,VWS V13.01,2013-05-15 10:41:00,
2013-05-15 05:43:00,66.2,46.5,30.98,South,187,7.6,7.6,49,0.00,,,0.00,VWS V13.01,2013-05-15 10:43:00,
2013-05-15 05:44:00,66.2,46.5,30.98,South,190,7.6,7.6,49,0.00,,,0.00,VWS V13.01,2013-05-15 10:44:00,
2013-05-15 05:45:00,66.2,46.5,30.98,South,191,7.6,7.6,49,0.00,,,0.00,VWS V13.01,2013-05-15 10:45:00,
2013-05-15 05:46:00,66.2,46.5,30.98,South,185,8.1,8.1,49,0.00,,,0.00,VWS V13.01,2013-05-15 10:46:00,
2013-05-15 05:48:00,66.0,49.4,30.98,South,190,8.7,8.7,55,0.00,,,0.00,VWS V13.01,2013-05-15 10:48:00,
2013-05-15 05:49:00,66.0,49.4,30.98,South,185,6.3,6.3,55,0.00,,,0.00,VWS V13.01,2013-05-15 10:49:00,
2013-05-15 05:50:00,66.0,49.4,30.98,South,190,7.6,7.6,55,0.00,,,0.00,VWS V13.01,2013-05-15 10:50:00,
2013-05-15 05:51:00,66.0,49.4,30.98,South,180,8.7,8.7,55,0.00,,,0.00,VWS V13.01,2013-05-15 10:51:00,
2013-05-15 05:52:00,66.0,49.4,30.98,South,188,7.6,7.6,55,0.00,,,0.00,VWS V13.01,2013-05-15 10:52:00,
2013-05-15 05:53:00,66.0,49.4,30.98,South,180,8.1,8.1,55,0.00,,,0.00,VWS V13.01,2013-05-15 10:53:00,
2013-05-15 05:54:00,66.0,49.4,30.98,South,189,9.2,9.2,55,0.00,,,0.00,VWS V13.01,2013-05-15 10:54:00,
2013-05-15 05:55:00,66.0,49.4,30.98,South,180,7.6,7.6,55,0.00,,,0.00,VWS V13.01,2013-05-15 10:55:00,
2013-05-15 05:56:00,66.0,49.4,30.95,South,184,7.6,7.6,55,0.00,,,0.00,VWS V13.01,2013-05-15 10:56:00,
2013-05-15 05:57:00,66.0,49.4,30.95,South,190,7.6,7.6,55,0.00,,,0.00,VWS V13.01,2013-05-15 10:57:00,
2013-05-15 05:58:00,65.8,49.2,30.95,SSW,192,8.3,8.3,55,0.00,,,0.00,VWS V13.01,2013-05-15 10:58:00,
2013-05-15 05:59:00,65.8,49.2,30.95,South,190,8.1,8.1,55,0.00,,,0.00,VWS V13.01,2013-05-15 10:59:00,
2013-05-15 06:01:00,65.8,49.2,30.95,South,175,8.1,8.1,55,0.00,,,0.00,VWS V13.01,2013-05-15 11:01:00,
2013-05-15 06:04:00,65.5,48.9,30.95,South,185,7.6,7.6,55,0.00,,,0.00,VWS V13.01,2013-05-15 11:04:00,
2013-05-15 06:06:00,65.7,49.1,30.95,South,178,8.7,8.7,55,0.00,,,0.00,VWS V13.01,2013-05-15 11:06:00,
2013-05-15 06:07:00,65.7,49.1,30.95,SSW,199,6.3,6.3,55,0.00,,,0.00,VWS V13.01,2013-05-15 11:07:00,
2013-05-15 06:09:00,65.7,49.1,30.95,South,185,8.1,8.1,55,0.00,,,0.00,VWS V13.01,2013-05-15 11:09:00,
2013-05-15 06:11:00,65.5,48.9,30.95,SSW,202,8.1,8.1,55,0.00,,,0.00,VWS V13.01,2013-05-15 11:11:00,
2013-05-15 06:12:00,65.5,48.9,30.98,SSW,197,7.2,7.2,55,0.00,,,0.00,VWS V13.01,2013-05-15 11:12:00,
2013-05-15 06:15:00,65.5,48.9,30.98,South,190,6.3,6.3,55,0.00,,,0.00,VWS V13.01,2013-05-15 11:15:00,
2013-05-15 06:17:00,65.5,48.9,30.98,SSW,192,8.1,8.1,55,0.00,,,0.00,VWS V13.01,2013-05-15 11:17:00,
2013-05-15 06:22:00,65.5,48.9,30.98,South,188,6.3,6.3,55,0.00,,,0.00,VWS V13.01,2013-05-15 11:22:00,
2013-05-15 06:23:00,65.3,48.7,30.98,SSW,196,5.8,5.8,55,0.00,,,0.00,VWS V13.01,2013-05-15 11:23:00,
2013-05-15 06:27:00,65.5,48.9,30.98,SSW,192,5.4,5.4,55,0.00,,,0.00,VWS V13.01,2013-05-15 11:27:00,
2013-05-15 06:28:00,65.5,48.9,30.98,South,178,8.1,8.1,55,0.00,,,0.00,VWS V13.01,2013-05-15 11:28:00,
2013-05-15 06:32:00,65.8,49.2,30.98,South,178,6.3,6.3,55,0.00,,,0.00,VWS V13.01,2013-05-15 11:32:00,
2013-05-15 06:33:00,65.8,49.2,30.98,SSW,197,7.6,7.6,55,0.00,,,0.00,VWS V13.01,2013-05-15 11:33:00,
2013-05-15 06:34:00,65.8,49.2,30.98,SSW,192,7.2,7.2,55,0.00,,,0.00,VWS V13.01,2013-05-15 11:34:00,
2013-05-15 06:37:00,66.0,49.4,30.98,SSW,195,5.8,5.8,55,0.00,,,0.00,VWS V13.01,2013-05-15 11:37:00,
2013-05-15 06:38:00,66.0,49.4,30.98,SSW,196,6.3,6.3,55,0.00,,,0.00,VWS V13.01,2013-05-15 11:38:00,
2013-05-15 06:39:00,66.0,49.4,30.98,South,175,8.1,8.1,55,0.00,,,0.00,VWS V13.01,2013-05-15 11:39:00,
2013-05-15 06:43:00,66.4,46.7,30.98,South,175,6.3,6.3,49,0.00,,,0.00,VWS V13.01,2013-05-15 11:43:00,
2013-05-15 06:45:00,66.6,46.8,30.98,South,182,7.6,7.6,49,0.00,,,0.00,VWS V13.01,2013-05-15 11:45:00,
2013-05-15 06:49:00,66.9,47.2,30.98,South,174,5.8,5.8,49,0.00,,,0.00,VWS V13.01,2013-05-15 11:49:00,
2013-05-15 06:50:00,66.9,47.2,30.98,South,187,5.4,5.4,49,0.00,,,0.00,VWS V13.01,2013-05-15 11:50:00,
2013-05-15 06:54:00,67.1,47.3,30.98,South,190,6.3,6.3,49,0.00,,,0.00,VWS V13.01,2013-05-15 11:54:00,
2013-05-15 06:55:00,67.1,47.3,30.98,South,178,7.2,7.2,49,0.00,,,0.00,VWS V13.01,2013-05-15 11:55:00,
2013-05-15 06:59:00,67.3,47.5,30.98,South,177,6.3,6.3,49,0.00,,,0.00,VWS V13.01,2013-05-15 11:59:00,
2013-05-15 07:00:00,67.5,47.7,30.98,South,176,7.2,7.2,49,0.00,,,0.00,VWS V13.01,2013-05-15 12:00:00,
2013-05-15 07:01:00,67.5,47.7,30.98,South,182,7.6,7.6,49,0.00,,,0.00,VWS V13.01,2013-05-15 12:01:00,
2013-05-15 07:04:00,67.6,47.8,30.98,South,191,7.6,7.6,49,0.00,,,0.00,VWS V13.01,2013-05-15 12:04:00,
2013-05-15 07:05:00,67.6,47.8,30.98,South,182,8.3,8.3,49,0.00,,,0.00,VWS V13.01,2013-05-15 12:05:00,
2013-05-15 07:06:00,67.6,47.8,30.98,South,176,8.3,8.3,49,0.00,,,0.00,VWS V13.01,2013-05-15 12:06:00,
2013-05-15 07:09:00,68.0,48.2,30.98,South,182,7.6,7.6,49,0.00,,,0.00,VWS V13.01,2013-05-15 12:09:00,
2013-05-15 07:11:00,68.2,48.3,30.98,South,177,8.1,8.1,49,0.00,,,0.00,VWS V13.01,2013-05-15 12:11:00,
2013-05-15 07:14:00,68.4,48.5,30.98,South,186,8.3,8.3,49,0.00,,,0.00,VWS V13.01,2013-05-15 12:14:00,
2013-05-15 07:16:00,68.5,48.6,30.98,South,180,8.1,8.1,49,0.00,,,0.00,VWS V13.01,2013-05-15 12:16:00,
2013-05-15 07:17:00,68.7,48.8,30.98,SSW,195,11.0,11.0,49,0.00,,,0.00,VWS V13.01,2013-05-15 12:17:00,
2013-05-15 07:20:00,68.7,48.8,30.98,South,184,11.0,11.0,49,0.00,,,0.00,VWS V13.01,2013-05-15 12:20:00,
2013-05-15 07:21:00,68.7,48.8,30.98,South,185,11.4,11.4,49,0.00,,,0.00,VWS V13.01,2013-05-15 12:21:00,
2013-05-15 07:22:00,68.5,48.6,30.98,South,185,8.3,8.3,49,0.00,,,0.00,VWS V13.01,2013-05-15 12:22:00,
2013-05-15 07:23:00,68.5,48.6,30.98,South,184,11.0,11.0,49,0.00,,,0.00,VWS V13.01,2013-05-15 12:23:00,
2013-05-15 07:26:00,68.9,49.0,30.98,South,188,8.7,8.7,49,0.00,,,0.00,VWS V13.01,2013-05-15 12:26:00,
2013-05-15 07:27:00,69.1,49.1,30.98,South,179,10.1,10.1,49,0.00,,,0.00,VWS V13.01,2013-05-15 12:27:00,
2013-05-15 07:29:00,69.3,49.3,30.98,South,189,11.0,11.0,49,0.00,,,0.00,VWS V13.01,2013-05-15 12:29:00,
2013-05-15 07:31:00,69.6,49.6,30.98,South,182,10.5,10.5,49,0.00,,,0.00,VWS V13.01,2013-05-15 12:31:00,
2013-05-15 07:32:00,69.4,49.5,30.98,SSW,194,10.1,10.1,49,0.00,,,0.00,VWS V13.01,2013-05-15 12:32:00,
2013-05-15 07:33:00,69.6,49.6,30.98,SSW,193,11.0,11.0,49,0.00,,,0.00,VWS V13.01,2013-05-15 12:33:00,
2013-05-15 07:34:00,69.8,49.8,30.98,SSW,193,8.7,8.7,49,0.00,,,0.00,VWS V13.01,2013-05-15 12:34:00,
2013-05-15 07:36:00,70.0,50.0,30.98,South,187,8.7,8.7,49,0.00,,,0.00,VWS V13.01,2013-05-15 12:36:00,
2013-05-15 07:37:00,70.0,50.0,30.98,South,185,8.1,8.1,49,0.00,,,0.00,VWS V13.01,2013-05-15 12:37:00,
2013-05-15 07:38:00,70.2,50.1,30.98,SSW,196,8.3,8.3,49,0.00,,,0.00,VWS V13.01,2013-05-15 12:38:00,
2013-05-15 07:41:00,70.5,50.5,30.98,South,187,7.6,7.6,49,0.00,,,0.00,VWS V13.01,2013-05-15 12:41:00,
2013-05-15 07:42:00,70.7,50.6,30.98,South,190,8.1,8.1,49,0.00,,,0.00,VWS V13.01,2013-05-15 12:42:00,
2013-05-15 07:43:00,70.7,50.6,30.98,South,184,10.5,10.5,49,0.00,,,0.00,VWS V13.01,2013-05-15 12:43:00,
2013-05-15 07:46:00,70.9,50.8,30.98,SSW,210,7.6,7.6,49,0.00,,,0.00,VWS V13.01,2013-05-15 12:46:00,
2013-05-15 07:47:00,70.9,50.8,30.98,SSW,193,8.1,8.1,49,0.00,,,0.00,VWS V13.01,2013-05-15 12:47:00,
2013-05-15 07:49:00,70.9,50.8,30.98,South,190,8.3,8.3,49,0.00,,,0.00,VWS V13.01,2013-05-15 12:49:00,
2013-05-15 07:51:00,71.1,51.0,30.98,South,189,8.7,8.7,49,0.00,,,0.00,VWS V13.01,2013-05-15 12:51:00,
2013-05-15 07:52:00,71.1,51.0,30.98,South,184,8.7,8.7,49,0.00,,,0.00,VWS V13.01,2013-05-15 12:52:00,
2013-05-15 07:54:00,71.2,51.1,30.98,South,179,11.0,11.0,49,0.00,,,0.00,VWS V13.01,2013-05-15 12:54:00,
2013-05-15 07:57:00,71.6,47.9,30.98,South,191,8.3,8.3,43,0.00,,,0.00,VWS V13.01,2013-05-15 12:57:00,
2013-05-15 07:58:00,71.6,47.9,30.98,SSW,196,8.7,8.7,43,0.00,,,0.00,VWS V13.01,2013-05-15 12:58:00,
2013-05-15 07:59:00,71.8,48.1,30.98,SSW,192,6.3,6.3,43,0.00,,,0.00,VWS V13.01,2013-05-15 12:59:00,
2013-05-15 08:02:00,71.8,48.1,30.98,SSW,192,8.7,8.7,43,0.00,,,0.00,VWS V13.01,2013-05-15 13:02:00,
2013-05-15 08:03:00,72.0,48.3,30.98,South,180,5.8,5.8,43,0.00,,,0.00,VWS V13.01,2013-05-15 13:03:00,
2013-05-15 08:05:00,72.0,48.3,30.98,South,190,6.7,6.7,43,0.00,,,0.00,VWS V13.01,2013-05-15 13:05:00,
2013-05-15 08:08:00,72.0,48.3,30.98,South,184,8.7,8.7,43,0.00,,,0.00,VWS V13.01,2013-05-15 13:08:00,
2013-05-15 08:09:00,72.0,48.3,30.98,South,189,10.5,10.5,43,0.00,,,0.00,VWS V13.01,2013-05-15 13:09:00,
2013-05-15 08:12:00,72.1,48.4,30.98,South,175,10.1,10.1,43,0.00,,,0.00,VWS V13.01,2013-05-15 13:12:00,
2013-05-15 08:13:00,72.1,48.4,30.98,SSW,203,10.1,10.1,43,0.00,,,0.00,VWS V13.01,2013-05-15 13:13:00,
2013-05-15 08:14:00,72.0,48.3,30.98,SW,223,11.9,11.9,43,0.00,,,0.00,VWS V13.01,2013-05-15 13:14:00,
2013-05-15 08:17:00,72.3,48.6,30.98,South,188,10.1,10.1,43,0.00,,,0.00,VWS V13.01,2013-05-15 13:17:00,
2013-05-15 08:18:00,72.3,48.6,30.98,SSW,192,8.3,8.3,43,0.00,,,0.00,VWS V13.01,2013-05-15 13:18:00,
2013-05-15 08:19:00,72.7,48.9,30.98,South,184,8.3,8.3,43,0.00,,,0.00,VWS V13.01,2013-05-15 13:19:00,
2013-05-15 08:23:00,73.6,49.7,30.98,South,185,7.6,7.6,43,0.00,,,0.00,VWS V13.01,2013-05-15 13:23:00,
2013-05-15 08:24:00,72.9,49.1,30.98,SSE,167,12.8,12.8,43,0.00,,,0.00,VWS V13.01,2013-05-15 13:24:00,
2013-05-15 08:28:00,73.2,49.4,30.98,SSW,196,11.0,11.0,43,0.00,,,0.00,VWS V13.01,2013-05-15 13:28:00,
2013-05-15 08:29:00,73.6,49.7,30.98,South,181,8.7,8.7,43,0.00,,,0.00,VWS V13.01,2013-05-15 13:29:00,
2013-05-15 08:30:00,73.6,49.7,30.98,SSW,200,10.5,10.5,43,0.00,,,0.00,VWS V13.01,2013-05-15 13:30:00,
2013-05-15 08:33:00,73.4,49.6,30.98,South,182,10.5,10.5,43,0.00,,,0.00,VWS V13.01,2013-05-15 13:33:00,
2013-05-15 08:34:00,73.6,49.7,30.98,SSW,194,10.1,10.1,43,0.00,,,0.00,VWS V13.01,2013-05-15 13:34:00,
2013-05-15 08:35:00,73.2,49.4,30.98,South,181,7.6,7.6,43,0.00,,,0.00,VWS V13.01,2013-05-15 13:35:00,
2013-05-15 08:39:00,73.4,49.6,30.98,SSW,209,8.3,8.3,43,0.00,,,0.00,VWS V13.01,2013-05-15 13:39:00,
2013-05-15 08:40:00,73.8,49.9,30.98,South,175,11.9,11.9,43,0.00,,,0.00,VWS V13.01,2013-05-15 13:40:00,
2013-05-15 08:41:00,73.8,49.9,30.98,SSW,192,8.7,8.7,43,0.00,,,0.00,VWS V13.01,2013-05-15 13:41:00,
2013-05-15 08:44:00,74.3,50.4,31.01,South,186,10.5,10.5,43,0.00,,,0.00,VWS V13.01,2013-05-15 13:44:00,
2013-05-15 08:46:00,73.8,49.9,31.01,South,180,8.3,8.3,43,0.00,,,0.00,VWS V13.01,2013-05-15 13:46:00,
2013-05-15 08:49:00,74.1,50.2,31.01,SSW,198,8.1,8.1,43,0.00,,,0.00,VWS V13.01,2013-05-15 13:49:00,
2013-05-15 08:51:00,74.1,56.9,31.01,South,190,7.6,7.6,55,0.00,,,0.00,VWS V13.01,2013-05-15 13:51:00,
2013-05-15 08:52:00,74.3,57.1,31.01,South,185,10.1,10.1,55,0.00,,,0.00,VWS V13.01,2013-05-15 13:52:00,
2013-05-15 08:54:00,74.3,57.1,31.01,SSW,192,9.2,9.2,55,0.00,,,0.00,VWS V13.01,2013-05-15 13:54:00,
2013-05-15 08:56:00,75.2,57.9,31.01,South,187,10.5,10.5,55,0.00,,,0.00,VWS V13.01,2013-05-15 13:56:00,
2013-05-15 08:57:00,75.2,57.9,31.01,South,185,7.6,7.6,55,0.00,,,0.00,VWS V13.01,2013-05-15 13:57:00,
2013-05-15 08:59:00,74.8,57.6,31.01,South,178,8.3,8.3,55,0.00,,,0.00,VWS V13.01,2013-05-15 13:59:00,
2013-05-15 09:00:00,75.0,57.8,31.01,SSW,197,13.2,13.2,55,0.00,,,0.00,VWS V13.01,2013-05-15 14:00:00,
2013-05-15 09:02:00,74.8,57.6,31.01,South,176,8.3,8.3,55,0.00,,,0.00,VWS V13.01,2013-05-15 14:02:00,
2013-05-15 09:03:00,75.0,57.8,31.01,South,187,10.1,10.1,55,0.00,,,0.00,VWS V13.01,2013-05-15 14:03:00,
2013-05-15 09:04:00,75.9,58.6,31.01,South,172,8.1,8.1,55,0.00,,,0.00,VWS V13.01,2013-05-15 14:04:00,
2013-05-15 09:05:00,75.6,58.3,31.01,South,181,7.6,7.6,55,0.00,,,0.00,VWS V13.01,2013-05-15 14:05:00,
2013-05-15 09:07:00,75.6,58.3,31.01,South,187,16.3,16.3,55,0.00,,,0.00,VWS V13.01,2013-05-15 14:07:00,
2013-05-15 09:08:00,75.0,57.8,31.01,South,187,15.4,15.4,55,0.00,,,0.00,VWS V13.01,2013-05-15 14:08:00,
2013-05-15 09:10:00,75.0,57.8,31.01,SSW,192,11.0,11.0,55,0.00,,,0.00,VWS V13.01,2013-05-15 14:10:00,
2013-05-15 09:12:00,75.0,57.8,31.01,South,191,12.8,12.8,55,0.00,,,0.00,VWS V13.01,2013-05-15 14:12:00,
2013-05-15 09:13:00,74.8,57.6,31.01,SSE,163,8.3,8.3,55,0.00,,,0.00,VWS V13.01,2013-05-15 14:13:00,
2013-05-15 09:15:00,75.0,57.8,31.01,SSW,198,11.9,11.9,55,0.00,,,0.00,VWS V13.01,2013-05-15 14:15:00,
2013-05-15 09:17:00,75.2,57.9,31.01,South,180,14.1,14.1,55,0.00,,,0.00,VWS V13.01,2013-05-15 14:17:00,
2013-05-15 09:19:00,74.7,57.4,31.01,South,169,10.5,10.5,55,0.00,,,0.00,VWS V13.01,2013-05-15 14:19:00,
2013-05-15 09:20:00,74.7,57.4,31.01,South,185,10.5,10.5,55,0.00,,,0.00,VWS V13.01,2013-05-15 14:20:00,
2013-05-15 09:23:00,75.6,58.3,31.01,South,183,10.5,10.5,55,0.00,,,0.00,VWS V13.01,2013-05-15 14:23:00,
2013-05-15 09:24:00,76.1,58.8,31.01,South,190,11.0,11.0,55,0.00,,,0.00,VWS V13.01,2013-05-15 14:24:00,
2013-05-15 09:26:00,75.9,58.6,31.01,SSW,193,7.6,7.6,55,0.00,,,0.00,VWS V13.01,2013-05-15 14:26:00,
2013-05-15 09:29:00,76.6,59.3,31.01,South,186,10.1,10.1,55,0.00,,,0.00,VWS V13.01,2013-05-15 14:29:00,
2013-05-15 09:32:00,76.5,59.1,31.01,SSW,197,8.7,8.7,55,0.00,,,0.00,VWS V13.01,2013-05-15 14:32:00,
2013-05-15 09:34:00,75.9,58.6,31.01,SSW,200,8.7,8.7,55,0.00,,,0.00,VWS V13.01,2013-05-15 14:34:00,
2013-05-15 09:35:00,76.1,58.8,31.01,South,180,11.0,11.0,55,0.00,,,0.00,VWS V13.01,2013-05-15 14:35:00,
2013-05-15 09:37:00,76.3,58.9,31.01,SSW,204,11.0,11.0,55,0.00,,,0.00,VWS V13.01,2013-05-15 14:37:00,
2013-05-15 09:39:00,76.6,59.3,31.01,South,191,7.6,7.6,55,0.00,,,0.00,VWS V13.01,2013-05-15 14:39:00,
2013-05-15 09:40:00,77.4,60.0,31.01,South,185,6.3,6.3,55,0.00,,,0.00,VWS V13.01,2013-05-15 14:40:00,
2013-05-15 09:42:00,77.2,59.8,31.01,South,182,11.0,11.0,55,0.00,,,0.00,VWS V13.01,2013-05-15 14:42:00,
2013-05-15 09:44:00,77.2,59.8,31.01,SSW,197,8.1,8.1,55,0.00,,,0.00,VWS V13.01,2013-05-15 14:44:00,
2013-05-15 09:45:00,76.8,59.5,31.01,SE,143,11.0,11.0,55,0.00,,,0.00,VWS V13.01,2013-05-15 14:45:00,
2013-05-15 09:46:00,76.8,59.5,31.01,SSW,192,10.1,10.1,55,0.00,,,0.00,VWS V13.01,2013-05-15 14:46:00,
2013-05-15 09:47:00,76.8,59.5,31.01,SSW,193,8.3,8.3,55,0.00,,,0.00,VWS V13.01,2013-05-15 14:47:00,
2013-05-15 09:49:00,77.2,59.8,31.01,South,184,12.3,12.3,55,0.00,,,0.00,VWS V13.01,2013-05-15 14:49:00,
2013-05-15 09:50:00,77.4,60.0,31.01,SSW,196,10.1,10.1,55,0.00,,,0.00,VWS V13.01,2013-05-15 14:50:00,
2013-05-15 09:51:00,77.5,60.1,31.01,South,185,12.8,12.8,55,0.00,,,0.00,VWS V13.01,2013-05-15 14:51:00,
2013-05-15 09:52:00,77.5,60.1,31.01,SSW,203,8.7,8.7,55,0.00,,,0.00,VWS V13.01,2013-05-15 14:52:00,
2013-05-15 09:55:00,77.9,60.5,31.01,South,191,8.7,8.7,55,0.00,,,0.00,VWS V13.01,2013-05-15 14:55:00,
2013-05-15 09:57:00,78.3,60.8,31.01,SSW,198,10.1,10.1,55,0.00,,,0.00,VWS V13.01,2013-05-15 14:57:00,
2013-05-15 09:58:00,78.1,60.6,31.01,SSW,194,10.1,10.1,55,0.00,,,0.00,VWS V13.01,2013-05-15 14:58:00,
2013-05-15 10:00:00,78.4,61.0,31.01,SSW,195,10.5,10.5,55,0.00,,,0.00,VWS V13.01,2013-05-15 15:00:00,
2013-05-15 10:03:00,78.4,61.0,31.01,South,187,7.6,7.6,55,0.00,,,0.00,VWS V13.01,2013-05-15 15:03:00,
2013-05-15 10:06:00,79.9,59.0,31.01,SSW,193,7.6,7.6,49,0.00,,,0.00,VWS V13.01,2013-05-15 15:06:00,
2013-05-15 10:08:00,79.9,59.0,31.01,South,191,8.3,8.3,49,0.00,,,0.00,VWS V13.01,2013-05-15 15:08:00,
2013-05-15 10:09:00,79.5,58.7,31.01,South,173,8.7,8.7,49,0.00,,,0.00,VWS V13.01,2013-05-15 15:09:00,
2013-05-15 10:11:00,79.5,58.7,31.01,South,185,9.2,9.2,49,0.00,,,0.00,VWS V13.01,2013-05-15 15:11:00,
2013-05-15 10:13:00,79.0,58.2,31.01,South,185,7.6,7.6,49,0.00,,,0.00,VWS V13.01,2013-05-15 15:13:00,
2013-05-15 10:14:00,78.6,61.1,31.01,South,190,11.0,11.0,55,0.00,,,0.00,VWS V13.01,2013-05-15 15:14:00,
2013-05-15 10:16:00,78.8,58.0,31.01,South,175,6.3,6.3,49,0.00,,,0.00,VWS V13.01,2013-05-15 15:16:00,
2013-05-15 10:17:00,80.4,59.5,31.01,SSW,193,10.1,10.1,49,0.00,,,0.00,VWS V13.01,2013-05-15 15:17:00,
2013-05-15 10:19:00,80.1,59.2,31.01,South,173,6.3,6.3,49,0.00,,,0.00,VWS V13.01,2013-05-15 15:19:00,
2013-05-15 10:22:00,78.6,61.1,31.01,SSW,198,11.0,11.0,55,0.00,,,0.00,VWS V13.01,2013-05-15 15:22:00,
2013-05-15 10:23:00,78.8,58.0,31.01,SSW,209,7.6,7.6,49,0.00,,,0.00,VWS V13.01,2013-05-15 15:23:00,
2013-05-15 10:25:00,79.9,59.0,31.01,South,190,13.2,13.2,49,0.00,,,0.00,VWS V13.01,2013-05-15 15:25:00,
2013-05-15 10:28:00,79.7,58.9,31.01,South,189,12.3,12.3,49,0.00,,,0.00,VWS V13.01,2013-05-15 15:28:00,
2013-05-15 10:29:00,79.2,58.4,31.01,SSW,199,13.2,13.2,49,0.00,,,0.00,VWS V13.01,2013-05-15 15:29:00,
2013-05-15 10:30:00,78.8,58.0,31.01,South,183,11.4,11.4,49,0.00,,,0.00,VWS V13.01,2013-05-15 15:30:00,
2013-05-15 10:34:00,79.2,58.4,31.01,South,190,11.9,11.9,49,0.00,,,0.00,VWS V13.01,2013-05-15 15:34:00,
2013-05-15 10:35:00,79.2,58.4,31.01,South,180,9.6,9.6,49,0.00,,,0.00,VWS V13.01,2013-05-15 15:35:00,
2013-05-15 10:36:00,79.2,58.4,31.01,South,180,8.7,8.7,49,0.00,,,0.00,VWS V13.01,2013-05-15 15:36:00,
2013-05-15 10:39:00,81.1,60.2,31.01,South,190,5.4,5.4,49,0.00,,,0.00,VWS V13.01,2013-05-15 15:39:00,
2013-05-15 10:40:00,81.1,60.2,31.01,South,179,8.7,8.7,49,0.00,,,0.00,VWS V13.01,2013-05-15 15:40:00,
2013-05-15 10:41:00,81.7,60.7,31.01,South,169,9.2,9.2,49,0.00,,,0.00,VWS V13.01,2013-05-15 15:41:00,
2013-05-15 10:46:00,82.2,61.2,31.01,South,187,8.3,8.3,49,0.00,,,0.00,VWS V13.01,2013-05-15 15:46:00,
2013-05-15 10:47:00,82.4,57.7,31.01,South,186,5.4,5.4,43,0.00,,,0.00,VWS V13.01,2013-05-15 15:47:00,
2013-05-15 10:51:00,81.1,60.2,31.01,South,183,10.5,10.5,49,0.00,,,0.00,VWS V13.01,2013-05-15 15:51:00,
2013-05-15 10:52:00,81.0,60.0,31.01,South,186,7.2,7.2,49,0.00,,,0.00,VWS V13.01,2013-05-15 15:52:00,
2013-05-15 10:53:00,80.6,59.7,31.01,South,190,8.3,8.3,49,0.00,,,0.00,VWS V13.01,2013-05-15 15:53:00,
2013-05-15 10:56:00,82.0,61.0,31.01,South,189,7.6,7.6,49,0.00,,,0.00,VWS V13.01,2013-05-15 15:56:00,
2013-05-15 10:57:00,81.9,60.8,31.01,SSW,200,10.1,10.1,49,0.00,,,0.00,VWS V13.01,2013-05-15 15:57:00,
2013-05-15 10:58:00,81.9,60.8,31.01,SSW,197,8.3,8.3,49,0.00,,,0.00,VWS V13.01,2013-05-15 15:58:00,
2013-05-15 11:02:00,82.0,61.0,31.01,South,188,8.7,8.7,49,0.00,,,0.00,VWS V13.01,2013-05-15 16:02:00,
2013-05-15 11:03:00,81.1,60.2,31.01,SSW,194,10.1,10.1,49,0.00,,,0.00,VWS V13.01,2013-05-15 16:03:00,
2013-05-15 11:07:00,81.0,60.0,31.01,South,181,8.3,8.3,49,0.00,,,0.00,VWS V13.01,2013-05-15 16:07:00,
2013-05-15 11:08:00,80.6,59.7,31.01,South,191,10.5,10.5,49,0.00,,,0.00,VWS V13.01,2013-05-15 16:08:00,
2013-05-15 11:09:00,80.8,59.9,31.01,SSW,194,11.0,11.0,49,0.00,,,0.00,VWS V13.01,2013-05-15 16:09:00,
2013-05-15 11:12:00,80.6,59.7,31.01,SSW,204,11.0,11.0,49,0.00,,,0.00,VWS V13.01,2013-05-15 16:12:00,
2013-05-15 11:13:00,80.6,59.7,31.01,South,190,10.1,10.1,49,0.00,,,0.00,VWS V13.01,2013-05-15 16:13:00,
2013-05-15 11:14:00,80.8,59.9,31.01,SSW,195,8.7,8.7,49,0.00,,,0.00,VWS V13.01,2013-05-15 16:14:00,
2013-05-15 11:18:00,82.0,61.0,31.01,South,185,6.3,6.3,49,0.00,,,0.00,VWS V13.01,2013-05-15 16:18:00,
2013-05-15 11:20:00,82.0,61.0,31.01,SSW,193,5.4,5.4,49,0.00,,,0.00,VWS V13.01,2013-05-15 16:20:00,
2013-05-15 11:23:00,81.5,60.5,31.01,SSW,194,5.8,5.8,49,0.00,,,0.00,VWS V13.01,2013-05-15 16:23:00,
2013-05-15 11:25:00,81.7,60.7,31.01,SSW,206,2.7,2.7,49,0.00,,,0.00,VWS V13.01,2013-05-15 16:25:00,
2013-05-15 11:28:00,83.5,58.7,31.01,SSE,168,10.1,10.1,43,0.00,,,0.00,VWS V13.01,2013-05-15 16:28:00,
2013-05-15 11:29:00,82.0,61.0,31.01,SSW,193,11.9,11.9,49,0.00,,,0.00,VWS V13.01,2013-05-15 16:29:00,
2013-05-15 11:31:00,80.8,59.9,31.01,South,189,9.6,9.6,49,0.00,,,0.00,VWS V13.01,2013-05-15 16:31:00,
2013-05-15 11:33:00,81.0,60.0,31.01,South,186,8.7,8.7,49,0.00,,,0.00,VWS V13.01,2013-05-15 16:33:00,
2013-05-15 11:34:00,80.4,59.5,31.01,South,188,7.2,7.2,49,0.00,,,0.00,VWS V13.01,2013-05-15 16:34:00,
2013-05-15 11:35:00,80.1,59.2,31.01,South,176,13.2,13.2,49,0.00,,,0.00,VWS V13.01,2013-05-15 16:35:00,
2013-05-15 11:36:00,80.6,59.7,31.01,SSW,201,7.6,7.6,49,0.00,,,0.00,VWS V13.01,2013-05-15 16:36:00,
2013-05-15 11:40:00,79.9,59.0,31.01,SSW,193,12.8,12.8,49,0.00,,,0.00,VWS V13.01,2013-05-15 16:40:00,
2013-05-15 11:41:00,79.9,59.0,31.01,SSW,198,6.7,6.7,49,0.00,,,0.00,VWS V13.01,2013-05-15 16:41:00,
2013-05-15 11:45:00,80.6,59.7,31.01,South,187,10.1,10.1,49,0.00,,,0.00,VWS V13.01,2013-05-15 16:45:00,
2013-05-15 11:46:00,80.2,59.4,31.01,South,184,8.7,8.7,49,0.00,,,0.00,VWS V13.01,2013-05-15 16:46:00,
2013-05-15 11:47:00,80.1,59.2,31.01,SSW,202,6.3,6.3,49,0.00,,,0.00,VWS V13.01,2013-05-15 16:47:00,
2013-05-15 11:51:00,80.2,59.4,31.01,SSW,201,9.2,9.2,49,0.00,,,0.00,VWS V13.01,2013-05-15 16:51:00,
2013-05-15 11:52:00,79.9,59.0,31.01,South,191,8.3,8.3,49,0.00,,,0.00,VWS V13.01,2013-05-15 16:52:00,
2013-05-15 11:56:00,80.8,59.9,31.01,SW,217,5.8,5.8,49,0.00,,,0.00,VWS V13.01,2013-05-15 16:56:00,
2013-05-15 11:57:00,81.0,60.0,31.01,South,191,8.1,8.1,49,0.00,,,0.00,VWS V13.01,2013-05-15 16:57:00,
2013-05-15 12:01:00,80.4,59.5,31.01,South,187,8.3,8.3,49,0.00,,,0.00,VWS V13.01,2013-05-15 17:01:00,
2013-05-15 12:02:00,79.9,59.0,31.01,SSW,200,10.1,10.1,49,0.00,,,0.00,VWS V13.01,2013-05-15 17:02:00,
2013-05-15 12:03:00,80.4,59.5,31.01,South,184,8.7,8.7,49,0.00,,,0.00,VWS V13.01,2013-05-15 17:03:00,
2013-05-15 12:07:00,80.2,59.4,31.01,South,186,13.2,13.2,49,0.00,,,0.00,VWS V13.01,2013-05-15 17:07:00,
2013-05-15 12:08:00,80.2,59.4,31.01,South,183,10.5,10.5,49,0.00,,,0.00,VWS V13.01,2013-05-15 17:08:00,
2013-05-15 12:12:00,81.5,60.5,31.01,SSW,202,5.8,5.8,49,0.00,,,0.00,VWS V13.01,2013-05-15 17:12:00,
2013-05-15 12:13:00,82.8,58.0,31.01,South,187,5.4,5.4,43,0.00,,,0.00,VWS V13.01,2013-05-15 17:13:00,
2013-05-15 12:14:00,82.8,58.0,31.01,SW,214,6.3,6.3,43,0.00,,,0.00,VWS V13.01,2013-05-15 17:14:00,
2013-05-15 12:17:00,84.7,59.8,31.01,South,171,4.0,4.0,43,0.00,,,0.00,VWS V13.01,2013-05-15 17:17:00,
2013-05-15 12:18:00,85.5,60.4,31.01,South,173,3.1,3.1,43,0.00,,,0.00,VWS V13.01,2013-05-15 17:18:00,
2013-05-15 12:19:00,83.7,58.8,31.01,South,177,7.6,7.6,43,0.00,,,0.00,VWS V13.01,2013-05-15 17:19:00,
2013-05-15 12:21:00,82.8,58.0,31.01,SSW,199,11.0,11.0,43,0.00,,,0.00,VWS V13.01,2013-05-15 17:21:00,
2013-05-15 12:22:00,82.4,57.7,31.01,South,176,8.7,8.7,43,0.00,,,0.00,VWS V13.01,2013-05-15 17:22:00,
2013-05-15 12:23:00,82.9,58.2,31.01,SSW,202,8.3,8.3,43,0.00,,,0.00,VWS V13.01,2013-05-15 17:23:00,
2013-05-15 12:25:00,83.8,59.0,31.01,SSE,167,7.6,7.6,43,0.00,,,0.00,VWS V13.01,2013-05-15 17:25:00,
2013-05-15 12:26:00,83.3,58.5,31.01,SSW,193,7.6,7.6,43,0.00,,,0.00,VWS V13.01,2013-05-15 17:26:00,
2013-05-15 12:27:00,82.9,58.2,31.01,South,190,5.8,5.8,43,0.00,,,0.00,VWS V13.01,2013-05-15 17:27:00,
2013-05-15 12:28:00,82.6,57.8,31.01,SSW,202,10.5,10.5,43,0.00,,,0.00,VWS V13.01,2013-05-15 17:28:00,
2013-05-15 12:31:00,82.8,58.0,31.01,South,181,10.5,10.5,43,0.00,,,0.00,VWS V13.01,2013-05-15 17:31:00,
2013-05-15 12:32:00,82.8,58.0,31.01,SSW,192,8.3,8.3,43,0.00,,,0.00,VWS V13.01,2013-05-15 17:32:00,
2013-05-15 12:33:00,82.9,58.2,31.01,South,190,7.6,7.6,43,0.00,,,0.00,VWS V13.01,2013-05-15 17:33:00,
2013-05-15 12:37:00,83.5,58.7,31.01,South,190,12.8,12.8,43,0.00,,,0.00,VWS V13.01,2013-05-15 17:37:00,
2013-05-15 12:38:00,83.8,59.0,31.01,South,174,8.3,8.3,43,0.00,,,0.00,VWS V13.01,2013-05-15 17:38:00,
2013-05-15 12:43:00,85.8,60.8,31.01,South,189,10.1,10.1,43,0.00,,,0.00,VWS V13.01,2013-05-15 17:43:00,
2013-05-15 12:48:00,85.6,60.6,31.01,South,190,8.3,8.3,43,0.00,,,0.00,VWS V13.01,2013-05-15 17:48:00,
2013-05-15 12:49:00,85.1,60.1,31.01,South,186,6.3,6.3,43,0.00,,,0.00,VWS V13.01,2013-05-15 17:49:00,
2013-05-15 12:50:00,86.5,61.4,31.01,South,187,4.0,4.0,43,0.00,,,0.00,VWS V13.01,2013-05-15 17:50:00,
2013-05-15 12:53:00,88.9,59.3,31.01,SSW,213,4.9,4.9,37,0.00,,,0.00,VWS V13.01,2013-05-15 17:53:00,
2013-05-15 12:54:00,89.2,59.6,31.01,SSW,210,4.9,4.9,37,0.00,,,0.00,VWS V13.01,2013-05-15 17:54:00,
2013-05-15 12:56:00,86.9,61.7,31.01,South,184,8.3,8.3,43,0.00,,,0.00,VWS V13.01,2013-05-15 17:56:00,
2013-05-15 12:58:00,86.2,61.1,31.01,South,186,10.5,10.5,43,0.00,,,0.00,VWS V13.01,2013-05-15 17:58:00,
2013-05-15 12:59:00,84.9,60.0,31.01,South,181,10.1,10.1,43,0.00,,,0.00,VWS V13.01,2013-05-15 17:59:00,
2013-05-15 13:02:00,86.9,61.7,31.01,SSW,195,4.9,4.9,43,0.00,,,0.00,VWS V13.01,2013-05-15 18:02:00,
2013-05-15 13:03:00,87.1,61.9,31.01,SSW,195,5.4,5.4,43,0.00,,,0.00,VWS V13.01,2013-05-15 18:03:00,
2013-05-15 13:04:00,87.1,61.9,31.01,South,176,7.6,7.6,43,0.00,,,0.00,VWS V13.01,2013-05-15 18:04:00,
2013-05-15 13:07:00,86.2,61.1,31.01,South,177,6.3,6.3,43,0.00,,,0.00,VWS V13.01,2013-05-15 18:07:00,
2013-05-15 13:09:00,84.7,59.8,31.01,SSW,194,11.0,11.0,43,0.00,,,0.00,VWS V13.01,2013-05-15 18:09:00,
2013-05-15 13:10:00,85.6,60.6,31.01,South,176,8.1,8.1,43,0.00,,,0.00,VWS V13.01,2013-05-15 18:10:00,
2013-05-15 13:12:00,85.5,60.4,31.01,SSW,194,8.3,8.3,43,0.00,,,0.00,VWS V13.01,2013-05-15 18:12:00,
2013-05-15 13:14:00,85.1,60.1,31.01,South,179,10.5,10.5,43,0.00,,,0.00,VWS V13.01,2013-05-15 18:14:00,
2013-05-15 13:16:00,86.2,61.1,31.01,SSW,194,5.8,5.8,43,0.00,,,0.00,VWS V13.01,2013-05-15 18:16:00,
2013-05-15 13:17:00,86.0,60.9,31.01,SSW,192,6.3,6.3,43,0.00,,,0.00,VWS V13.01,2013-05-15 18:17:00,
2013-05-15 13:19:00,85.8,60.8,31.01,South,185,10.5,10.5,43,0.00,,,0.00,VWS V13.01,2013-05-15 18:19:00,
2013-05-15 13:20:00,87.1,61.9,31.01,South,189,8.7,8.7,43,0.00,,,0.00,VWS V13.01,2013-05-15 18:20:00,
2013-05-15 13:22:00,86.9,61.7,31.01,SSW,194,7.6,7.6,43,0.00,,,0.00,VWS V13.01,2013-05-15 18:22:00,
2013-05-15 13:23:00,86.4,61.2,31.01,SSW,192,6.3,6.3,43,0.00,,,0.00,VWS V13.01,2013-05-15 18:23:00,
2013-05-15 13:24:00,87.1,61.9,31.01,SW,217,3.1,3.1,43,0.00,,,0.00,VWS V13.01,2013-05-15 18:24:00,
2013-05-15 13:25:00,87.6,62.4,31.01,SSW,213,5.8,5.8,43,0.00,,,0.00,VWS V13.01,2013-05-15 18:25:00,
2013-05-15 13:27:00,86.2,61.1,31.01,South,189,10.5,10.5,43,0.00,,,0.00,VWS V13.01,2013-05-15 18:27:00,
2013-05-15 13:28:00,86.2,61.1,31.01,South,188,10.5,10.5,43,0.00,,,0.00,VWS V13.01,2013-05-15 18:28:00,
2013-05-15 13:29:00,86.5,61.4,31.01,SSW,194,11.0,11.0,43,0.00,,,0.00,VWS V13.01,2013-05-15 18:29:00,
2013-05-15 13:30:00,85.8,60.8,31.01,SSW,198,8.7,8.7,43,0.00,,,0.00,VWS V13.01,2013-05-15 18:30:00,
2013-05-15 13:34:00,84.6,59.6,31.01,South,182,11.9,11.9,43,0.00,,,0.00,VWS V13.01,2013-05-15 18:34:00,
2013-05-15 13:35:00,85.6,60.6,31.01,South,191,6.3,6.3,43,0.00,,,0.00,VWS V13.01,2013-05-15 18:35:00,
2013-05-15 13:40:00,87.8,58.3,31.01,SSW,203,4.0,4.0,37,0.00,,,0.00,VWS V13.01,2013-05-15 18:40:00,
2013-05-15 13:45:00,85.5,60.4,31.01,South,178,10.5,10.5,43,0.00,,,0.00,VWS V13.01,2013-05-15 18:45:00,
2013-05-15 13:46:00,86.2,61.1,31.01,South,180,8.7,8.7,43,0.00,,,0.00,VWS V13.01,2013-05-15 18:46:00,
2013-05-15 13:50:00,87.4,62.2,31.01,South,179,5.8,5.8,43,0.00,,,0.00,VWS V13.01,2013-05-15 18:50:00,
2013-05-15 13:51:00,87.8,58.3,31.01,South,176,6.3,6.3,37,0.00,,,0.00,VWS V13.01,2013-05-15 18:51:00,
2013-05-15 13:56:00,88.2,58.6,31.01,South,182,10.5,10.5,37,0.00,,,0.00,VWS V13.01,2013-05-15 18:56:00,
2013-05-15 13:57:00,86.7,61.6,31.01,South,180,9.2,9.2,43,0.00,,,0.00,VWS V13.01,2013-05-15 18:57:00,
2013-05-15 14:01:00,88.5,59.0,31.01,SSW,206,8.1,8.1,37,0.00,,,0.00,VWS V13.01,2013-05-15 19:01:00,
2013-05-15 14:02:00,88.9,59.3,31.01,SSW,202,8.1,8.1,37,0.00,,,0.00,VWS V13.01,2013-05-15 19:02:00,
2013-05-15 14:06:00,85.8,60.8,31.01,South,179,8.7,8.7,43,0.00,,,0.00,VWS V13.01,2013-05-15 19:06:00,
2013-05-15 14:07:00,86.5,61.4,31.01,SSE,162,8.1,8.1,43,0.00,,,0.00,VWS V13.01,2013-05-15 19:07:00,
2013-05-15 14:08:00,86.5,61.4,31.01,SSW,196,9.2,9.2,43,0.00,,,0.00,VWS V13.01,2013-05-15 19:08:00,
2013-05-15 14:12:00,85.3,60.3,31.01,SSE,166,10.5,10.5,43,0.00,,,0.00,VWS V13.01,2013-05-15 19:12:00,
2013-05-15 14:13:00,84.9,60.0,31.01,South,185,8.7,8.7,43,0.00,,,0.00,VWS V13.01,2013-05-15 19:13:00,
2013-05-15 14:17:00,84.0,59.1,31.01,South,183,15.4,15.4,43,0.00,,,0.00,VWS V13.01,2013-05-15 19:17:00,
2013-05-15 14:18:00,84.0,59.1,31.01,South,190,10.5,10.5,43,0.00,,,0.00,VWS V13.01,2013-05-15 19:18:00,
2013-05-15 14:19:00,84.2,59.3,31.01,South,186,8.7,8.7,43,0.00,,,0.00,VWS V13.01,2013-05-15 19:19:00,
2013-05-15 14:22:00,84.9,60.0,31.01,SSW,196,8.1,8.1,43,0.00,,,0.00,VWS V13.01,2013-05-15 19:22:00,
2013-05-15 14:23:00,84.7,59.8,31.01,South,176,8.3,8.3,43,0.00,,,0.00,VWS V13.01,2013-05-15 19:23:00,
2013-05-15 14:24:00,85.6,60.6,31.01,South,188,5.8,5.8,43,0.00,,,0.00,VWS V13.01,2013-05-15 19:24:00,
2013-05-15 14:25:00,85.8,60.8,31.01,SSE,162,8.7,8.7,43,0.00,,,0.00,VWS V13.01,2013-05-15 19:25:00,
2013-05-15 14:28:00,85.3,60.3,31.01,South,191,11.0,11.0,43,0.00,,,0.00,VWS V13.01,2013-05-15 19:28:00,
2013-05-15 14:29:00,84.7,59.8,31.01,SSW,196,11.0,11.0,43,0.00,,,0.00,VWS V13.01,2013-05-15 19:29:00,
2013-05-15 14:30:00,84.0,59.1,31.01,SSW,199,10.5,10.5,43,0.00,,,0.00,VWS V13.01,2013-05-15 19:30:00,
2013-05-15 14:33:00,84.4,59.5,31.01,South,184,8.7,8.7,43,0.00,,,0.00,VWS V13.01,2013-05-15 19:33:00,
2013-05-15 14:34:00,84.2,59.3,31.01,South,179,8.1,8.1,43,0.00,,,0.00,VWS V13.01,2013-05-15 19:34:00,
2013-05-15 14:35:00,84.2,59.3,31.01,South,189,5.8,5.8,43,0.00,,,0.00,VWS V13.01,2013-05-15 19:35:00,
2013-05-15 14:39:00,84.7,59.8,31.01,South,184,6.3,6.3,43,0.00,,,0.00,VWS V13.01,2013-05-15 19:39:00,
2013-05-15 14:40:00,85.1,60.1,31.01,South,188,5.8,5.8,43,0.00,,,0.00,VWS V13.01,2013-05-15 19:40:00,
2013-05-15 14:44:00,84.4,59.5,31.01,South,177,10.5,10.5,43,0.00,,,0.00,VWS V13.01,2013-05-15 19:44:00,
2013-05-15 14:46:00,84.0,59.1,31.01,South,176,7.2,7.2,43,0.00,,,0.00,VWS V13.01,2013-05-15 19:46:00,
2013-05-15 14:50:00,83.3,58.5,31.01,South,188,11.0,11.0,43,0.00,,,0.00,VWS V13.01,2013-05-15 19:50:00,
2013-05-15 14:51:00,83.3,58.5,31.01,South,170,6.3,6.3,43,0.00,,,0.00,VWS V13.01,2013-05-15 19:51:00,
2013-05-15 14:55:00,83.1,58.3,31.01,SSW,197,8.7,8.7,43,0.00,,,0.00,VWS V13.01,2013-05-15 19:55:00,
2013-05-15 14:56:00,83.1,58.3,31.01,South,177,9.6,9.6,43,0.00,,,0.00,VWS V13.01,2013-05-15 19:56:00,
2013-05-15 14:57:00,83.1,58.3,31.01,South,178,7.6,7.6,43,0.00,,,0.00,VWS V13.01,2013-05-15 19:57:00,
2013-05-15 15:01:00,83.1,58.3,31.01,SSW,193,10.1,10.1,43,0.00,,,0.00,VWS V13.01,2013-05-15 20:01:00,
2013-05-15 15:02:00,83.1,58.3,31.01,South,179,5.4,5.4,43,0.00,,,0.00,VWS V13.01,2013-05-15 20:02:00,
2013-05-15 15:06:00,83.1,58.3,31.01,South,191,8.7,8.7,43,0.00,,,0.00,VWS V13.01,2013-05-15 20:06:00,
2013-05-15 15:07:00,83.1,58.3,31.01,South,184,10.1,10.1,43,0.00,,,0.00,VWS V13.01,2013-05-15 20:07:00,
2013-05-15 15:12:00,83.7,58.8,31.01,South,189,8.3,8.3,43,0.00,,,0.00,VWS V13.01,2013-05-15 20:12:00,
2013-05-15 15:17:00,83.5,58.7,31.01,South,176,8.1,8.1,43,0.00,,,0.00,VWS V13.01,2013-05-15 20:17:00,
2013-05-15 15:18:00,83.5,58.7,31.01,South,173,8.3,8.3,43,0.00,,,0.00,VWS V13.01,2013-05-15 20:18:00,
2013-05-15 15:22:00,83.3,58.5,31.01,South,176,11.9,11.9,43,0.00,,,0.00,VWS V13.01,2013-05-15 20:22:00,
2013-05-15 15:24:00,83.3,58.5,31.01,South,181,13.2,13.2,43,0.00,,,0.00,VWS V13.01,2013-05-15 20:24:00,
2013-05-15 15:28:00,83.3,58.5,30.98,South,182,15.9,15.9,43,0.00,,,0.00,VWS V13.01,2013-05-15 20:28:00,
2013-05-15 15:29:00,82.9,58.2,30.98,South,170,11.0,11.0,43,0.00,,,0.00,VWS V13.01,2013-05-15 20:29:00,
2013-05-15 15:33:00,83.1,58.3,30.98,SSW,198,12.8,12.8,43,0.00,,,0.00,VWS V13.01,2013-05-15 20:33:00,
2013-05-15 15:35:00,82.9,58.2,30.98,SSW,195,10.5,10.5,43,0.00,,,0.00,VWS V13.01,2013-05-15 20:35:00,
2013-05-15 15:38:00,83.7,58.8,30.98,SSW,199,12.8,12.8,43,0.00,,,0.00,VWS V13.01,2013-05-15 20:38:00,
2013-05-15 15:40:00,83.3,58.5,30.98,South,178,9.6,9.6,43,0.00,,,0.00,VWS V13.01,2013-05-15 20:40:00,
2013-05-15 15:41:00,83.3,58.5,30.98,SSW,205,8.7,8.7,43,0.00,,,0.00,VWS V13.01,2013-05-15 20:41:00,
2013-05-15 15:44:00,82.9,58.2,31.01,South,177,4.9,4.9,43,0.00,,,0.00,VWS V13.01,2013-05-15 20:44:00,
2013-05-15 15:45:00,83.5,58.7,31.01,South,184,8.3,8.3,43,0.00,,,0.00,VWS V13.01,2013-05-15 20:45:00,
2013-05-15 15:46:00,83.5,58.7,31.01,South,180,8.7,8.7,43,0.00,,,0.00,VWS V13.01,2013-05-15 20:46:00,
2013-05-15 15:49:00,83.3,58.5,31.01,South,189,8.7,8.7,43,0.00,,,0.00,VWS V13.01,2013-05-15 20:49:00,
2013-05-15 15:51:00,83.3,58.5,31.01,SSW,195,8.1,8.1,43,0.00,,,0.00,VWS V13.01,2013-05-15 20:51:00,
2013-05-15 15:54:00,83.8,59.0,31.01,South,183,8.3,8.3,43,0.00,,,0.00,VWS V13.01,2013-05-15 20:54:00,
2013-05-15 15:55:00,83.8,59.0,31.01,SSW,192,8.1,8.1,43,0.00,,,0.00,VWS V13.01,2013-05-15 20:55:00,
2013-05-15 15:56:00,84.0,59.1,30.98,South,180,8.3,8.3,43,0.00,,,0.00,VWS V13.01,2013-05-15 20:56:00,
2013-05-15 15:57:00,83.8,59.0,30.98,SSW,193,8.1,8.1,43,0.00,,,0.00,VWS V13.01,2013-05-15 20:57:00,
2013-05-15 16:00:00,83.3,58.5,30.98,South,183,11.0,11.0,43,0.00,,,0.00,VWS V13.01,2013-05-15 21:00:00,
2013-05-15 16:02:00,83.5,58.7,30.98,South,171,8.1,8.1,43,0.00,,,0.00,VWS V13.01,2013-05-15 21:02:00,
2013-05-15 16:05:00,82.8,58.0,30.98,South,184,10.5,10.5,43,0.00,,,0.00,VWS V13.01,2013-05-15 21:05:00,
2013-05-15 16:06:00,82.2,61.2,30.98,South,186,8.3,8.3,49,0.00,,,0.00,VWS V13.01,2013-05-15 21:06:00,
2013-05-15 16:07:00,82.2,61.2,30.98,South,190,12.3,12.3,49,0.00,,,0.00,VWS V13.01,2013-05-15 21:07:00,
2013-05-15 16:08:00,82.2,61.2,30.98,SSW,193,8.3,8.3,49,0.00,,,0.00,VWS V13.01,2013-05-15 21:08:00,
2013-05-15 16:10:00,82.2,61.2,30.98,South,178,8.1,8.1,49,0.00,,,0.00,VWS V13.01,2013-05-15 21:10:00,
2013-05-15 16:11:00,82.0,61.0,31.01,South,183,11.0,11.0,49,0.00,,,0.00,VWS V13.01,2013-05-15 21:11:00,
2013-05-15 16:12:00,82.0,61.0,31.01,SSW,197,10.1,10.1,49,0.00,,,0.00,VWS V13.01,2013-05-15 21:12:00,
2013-05-15 16:13:00,81.9,60.8,31.01,South,188,9.6,9.6,49,0.00,,,0.00,VWS V13.01,2013-05-15 21:13:00,
2013-05-15 16:16:00,81.7,60.7,31.01,South,177,10.1,10.1,49,0.00,,,0.00,VWS V13.01,2013-05-15 21:16:00,
2013-05-15 16:17:00,81.7,60.7,31.01,South,189,8.7,8.7,49,0.00,,,0.00,VWS V13.01,2013-05-15 21:17:00,
2013-05-15 16:18:00,81.7,60.7,31.01,South,183,8.3,8.3,49,0.00,,,0.00,VWS V13.01,2013-05-15 21:18:00,
2013-05-15 16:21:00,82.0,61.0,31.01,South,180,10.5,10.5,49,0.00,,,0.00,VWS V13.01,2013-05-15 21:21:00,
2013-05-15 16:22:00,81.9,60.8,31.01,South,174,7.6,7.6,49,0.00,,,0.00,VWS V13.01,2013-05-15 21:22:00,
2013-05-15 16:25:00,82.2,61.2,31.01,South,187,8.1,8.1,49,0.00,,,0.00,VWS V13.01,2013-05-15 21:25:00,
2013-05-15 16:26:00,82.4,57.7,31.01,South,189,8.1,8.1,43,0.00,,,0.00,VWS V13.01,2013-05-15 21:26:00,
2013-05-15 16:27:00,82.2,61.2,30.98,South,191,10.1,10.1,49,0.00,,,0.00,VWS V13.01,2013-05-15 21:27:00,
2013-05-15 16:28:00,82.2,61.2,30.98,South,190,9.6,9.6,49,0.00,,,0.00,VWS V13.01,2013-05-15 21:28:00,
2013-05-15 16:30:00,81.9,60.8,30.98,South,181,8.7,8.7,49,0.00,,,0.00,VWS V13.01,2013-05-15 21:30:00,
2013-05-15 16:31:00,82.0,61.0,30.98,South,177,8.7,8.7,49,0.00,,,0.00,VWS V13.01,2013-05-15 21:31:00,
2013-05-15 16:32:00,82.0,61.0,30.98,SSW,197,5.8,5.8,49,0.00,,,0.00,VWS V13.01,2013-05-15 21:32:00,
2013-05-15 16:33:00,82.2,61.2,30.98,SSE,165,8.3,8.3,49,0.00,,,0.00,VWS V13.01,2013-05-15 21:33:00,
2013-05-15 16:35:00,82.2,61.2,30.98,South,186,10.1,10.1,49,0.00,,,0.00,VWS V13.01,2013-05-15 21:35:00,
2013-05-15 16:36:00,82.2,61.2,30.98,South,189,8.3,8.3,49,0.00,,,0.00,VWS V13.01,2013-05-15 21:36:00,
2013-05-15 16:38:00,82.2,61.2,30.98,SSW,192,6.3,6.3,49,0.00,,,0.00,VWS V13.01,2013-05-15 21:38:00,
2013-05-15 16:41:00,81.9,60.8,30.98,South,187,10.1,10.1,49,0.00,,,0.00,VWS V13.01,2013-05-15 21:41:00,
2013-05-15 16:42:00,82.0,61.0,30.98,South,191,6.3,6.3,49,0.00,,,0.00,VWS V13.01,2013-05-15 21:42:00,
2013-05-15 16:43:00,81.7,60.7,30.98,South,178,8.3,8.3,49,0.00,,,0.00,VWS V13.01,2013-05-15 21:43:00,
2013-05-15 16:44:00,81.7,60.7,30.98,South,183,8.3,8.3,49,0.00,,,0.00,VWS V13.01,2013-05-15 21:44:00,
2013-05-15 16:47:00,81.1,60.2,30.98,South,191,8.3,8.3,49,0.00,,,0.00,VWS V13.01,2013-05-15 21:47:00,
2013-05-15 16:49:00,81.1,60.2,30.98,South,172,11.0,11.0,49,0.00,,,0.00,VWS V13.01,2013-05-15 21:49:00,
2013-05-15 16:52:00,81.0,60.0,30.98,SSW,195,10.5,10.5,49,0.00,,,0.00,VWS V13.01,2013-05-15 21:52:00,
2013-05-15 16:54:00,80.8,59.9,30.98,South,181,11.9,11.9,49,0.00,,,0.00,VWS V13.01,2013-05-15 21:54:00,
2013-05-15 16:55:00,80.8,59.9,30.98,South,190,8.7,8.7,49,0.00,,,0.00,VWS V13.01,2013-05-15 21:55:00,
2013-05-15 16:57:00,80.6,59.7,30.98,South,187,9.2,9.2,49,0.00,,,0.00,VWS V13.01,2013-05-15 21:57:00,
2013-05-15 16:59:00,80.6,59.7,30.98,South,188,10.5,10.5,49,0.00,,,0.00,VWS V13.01,2013-05-15 21:59:00,
2013-05-15 17:00:00,80.6,59.7,30.98,South,174,12.3,12.3,49,0.00,,,0.00,VWS V13.01,2013-05-15 22:00:00,
2013-05-15 17:02:00,80.6,59.7,30.98,SSE,164,10.5,10.5,49,0.00,,,0.00,VWS V13.01,2013-05-15 22:02:00,
2013-05-15 17:03:00,80.6,59.7,30.98,South,187,8.3,8.3,49,0.00,,,0.00,VWS V13.01,2013-05-15 22:03:00,
2013-05-15 17:05:00,80.8,59.9,30.98,South,182,10.5,10.5,49,0.00,,,0.00,VWS V13.01,2013-05-15 22:05:00,
2013-05-15 17:06:00,80.8,59.9,30.98,South,178,10.1,10.1,49,0.00,,,0.00,VWS V13.01,2013-05-15 22:06:00,
2013-05-15 17:08:00,81.0,60.0,30.98,South,173,6.3,6.3,49,0.00,,,0.00,VWS V13.01,2013-05-15 22:08:00,
2013-05-15 17:10:00,81.0,60.0,30.98,South,190,8.3,8.3,49,0.00,,,0.00,VWS V13.01,2013-05-15 22:10:00,
2013-05-15 17:11:00,80.8,59.9,30.98,South,184,9.2,9.2,49,0.00,,,0.00,VWS V13.01,2013-05-15 22:11:00,
2013-05-15 17:13:00,80.8,59.9,30.98,South,191,8.7,8.7,49,0.00,,,0.00,VWS V13.01,2013-05-15 22:13:00,
2013-05-15 17:15:00,81.1,60.2,30.98,South,185,10.5,10.5,49,0.00,,,0.00,VWS V13.01,2013-05-15 22:15:00,
2013-05-15 17:16:00,81.0,60.0,30.98,South,176,10.5,10.5,49,0.00,,,0.00,VWS V13.01,2013-05-15 22:16:00,
2013-05-15 17:18:00,81.1,60.2,30.98,SSW,195,8.7,8.7,49,0.00,,,0.00,VWS V13.01,2013-05-15 22:18:00,
2013-05-15 17:19:00,81.3,60.3,30.98,South,186,5.8,5.8,49,0.00,,,0.00,VWS V13.01,2013-05-15 22:19:00,
2013-05-15 17:21:00,81.1,60.2,30.98,South,189,11.0,11.0,49,0.00,,,0.00,VWS V13.01,2013-05-15 22:21:00,
2013-05-15 17:23:00,80.8,59.9,30.98,SSW,196,8.7,8.7,49,0.00,,,0.00,VWS V13.01,2013-05-15 22:23:00,
2013-05-15 17:24:00,80.8,59.9,30.98,South,181,10.1,10.1,49,0.00,,,0.00,VWS V13.01,2013-05-15 22:24:00,
2013-05-15 17:27:00,81.0,60.0,30.98,South,191,12.8,12.8,49,0.00,,,0.00,VWS V13.01,2013-05-15 22:27:00,
2013-05-15 17:28:00,80.8,59.9,30.98,South,176,10.1,10.1,49,0.00,,,0.00,VWS V13.01,2013-05-15 22:28:00,
2013-05-15 17:29:00,80.6,59.7,30.98,SSW,195,10.1,10.1,49,0.00,,,0.00,VWS V13.01,2013-05-15 22:29:00,
2013-05-15 17:32:00,80.4,59.5,30.98,South,186,11.0,11.0,49,0.00,,,0.00,VWS V13.01,2013-05-15 22:32:00,
2013-05-15 17:33:00,80.6,59.7,30.98,South,169,7.6,7.6,49,0.00,,,0.00,VWS V13.01,2013-05-15 22:33:00,
2013-05-15 17:34:00,80.6,59.7,30.98,SSW,192,8.1,8.1,49,0.00,,,0.00,VWS V13.01,2013-05-15 22:34:00,
2013-05-15 17:37:00,80.4,59.5,30.98,South,186,6.3,6.3,49,0.00,,,0.00,VWS V13.01,2013-05-15 22:37:00,
2013-05-15 17:39:00,80.6,59.7,30.98,South,189,6.3,6.3,49,0.00,,,0.00,VWS V13.01,2013-05-15 22:39:00,
2013-05-15 17:40:00,81.0,60.0,30.98,South,176,8.7,8.7,49,0.00,,,0.00,VWS V13.01,2013-05-15 22:40:00,
2013-05-15 17:42:00,81.7,60.7,30.95,SW,216,4.0,4.0,49,0.00,,,0.00,VWS V13.01,2013-05-15 22:42:00,
2013-05-15 17:44:00,81.9,60.8,30.95,South,185,5.8,5.8,49,0.00,,,0.00,VWS V13.01,2013-05-15 22:44:00,
2013-05-15 17:45:00,81.7,60.7,30.95,South,188,7.6,7.6,49,0.00,,,0.00,VWS V13.01,2013-05-15 22:45:00,
2013-05-15 17:48:00,81.7,60.7,30.95,SSW,193,5.8,5.8,49,0.00,,,0.00,VWS V13.01,2013-05-15 22:48:00,
2013-05-15 17:50:00,81.0,60.0,30.95,South,183,7.6,7.6,49,0.00,,,0.00,VWS V13.01,2013-05-15 22:50:00,
2013-05-15 17:51:00,80.6,59.7,30.95,South,183,10.1,10.1,49,0.00,,,0.00,VWS V13.01,2013-05-15 22:51:00,
2013-05-15 17:52:00,80.4,59.5,30.95,South,181,10.1,10.1,49,0.00,,,0.00,VWS V13.01,2013-05-15 22:52:00,
2013-05-15 17:53:00,80.6,59.7,30.95,South,185,12.3,12.3,49,0.00,,,0.00,VWS V13.01,2013-05-15 22:53:00,
2013-05-15 17:55:00,81.0,60.0,30.95,South,173,9.6,9.6,49,0.00,,,0.00,VWS V13.01,2013-05-15 22:55:00,
2013-05-15 17:57:00,80.8,59.9,30.98,South,191,12.8,12.8,49,0.00,,,0.00,VWS V13.01,2013-05-15 22:57:00,
2013-05-15 17:58:00,80.4,59.5,30.98,SSW,204,10.5,10.5,49,0.00,,,0.00,VWS V13.01,2013-05-15 22:58:00,
2013-05-15 17:59:00,80.4,59.5,30.98,SSE,154,8.1,8.1,49,0.00,,,0.00,VWS V13.01,2013-05-15 22:59:00,
2013-05-15 18:00:00,80.2,59.4,30.98,South,184,8.7,8.7,49,0.00,,,0.00,VWS V13.01,2013-05-15 23:00:00,
2013-05-15 18:03:00,79.9,59.0,30.98,South,181,8.7,8.7,49,0.00,,,0.00,VWS V13.01,2013-05-15 23:03:00,
2013-05-15 18:04:00,79.7,58.9,30.98,South,178,11.0,11.0,49,0.00,,,0.00,VWS V13.01,2013-05-15 23:04:00,
2013-05-15 18:06:00,79.7,58.9,30.98,SSW,194,11.0,11.0,49,0.00,,,0.00,VWS V13.01,2013-05-15 23:06:00,
2013-05-15 18:08:00,79.2,58.4,30.98,SSW,199,11.0,11.0,49,0.00,,,0.00,VWS V13.01,2013-05-15 23:08:00,
2013-05-15 18:09:00,79.0,58.2,30.98,SE,142,12.3,12.3,49,0.00,,,0.00,VWS V13.01,2013-05-15 23:09:00,
2013-05-15 18:11:00,78.4,61.0,30.98,South,185,10.5,10.5,55,0.00,,,0.00,VWS V13.01,2013-05-15 23:11:00,
2013-05-15 18:13:00,78.4,61.0,30.98,South,185,8.1,8.1,55,0.00,,,0.00,VWS V13.01,2013-05-15 23:13:00,
2013-05-15 18:14:00,78.6,61.1,30.98,South,178,9.6,9.6,55,0.00,,,0.00,VWS V13.01,2013-05-15 23:14:00,
2013-05-15 18:17:00,78.4,61.0,30.98,South,179,15.0,15.0,55,0.00,,,0.00,VWS V13.01,2013-05-15 23:17:00,
2013-05-15 18:18:00,78.4,61.0,30.98,South,190,10.5,10.5,55,0.00,,,0.00,VWS V13.01,2013-05-15 23:18:00,
2013-05-15 18:20:00,78.4,61.0,30.98,SSE,167,11.0,11.0,55,0.00,,,0.00,VWS V13.01,2013-05-15 23:20:00,
2013-05-15 18:21:00,78.4,61.0,30.98,South,181,10.1,10.1,55,0.00,,,0.00,VWS V13.01,2013-05-15 23:21:00,
2013-05-15 18:22:00,78.6,61.1,30.98,South,187,8.1,8.1,55,0.00,,,0.00,VWS V13.01,2013-05-15 23:22:00,
2013-05-15 18:25:00,78.4,61.0,30.98,South,186,10.5,10.5,55,0.00,,,0.00,VWS V13.01,2013-05-15 23:25:00,
2013-05-15 18:26:00,78.6,61.1,30.98,South,175,12.8,12.8,55,0.00,,,0.00,VWS V13.01,2013-05-15 23:26:00,
2013-05-15 18:28:00,78.6,61.1,30.95,SSE,163,10.5,10.5,55,0.00,,,0.00,VWS V13.01,2013-05-15 23:28:00,
2013-05-15 18:30:00,78.4,61.0,30.95,South,191,8.7,8.7,55,0.00,,,0.00,VWS V13.01,2013-05-15 23:30:00,
2013-05-15 18:31:00,78.3,60.8,30.95,South,190,10.1,10.1,55,0.00,,,0.00,VWS V13.01,2013-05-15 23:31:00,
2013-05-15 18:33:00,78.3,60.8,30.95,South,189,13.6,13.6,55,0.00,,,0.00,VWS V13.01,2013-05-15 23:33:00,
2013-05-15 18:36:00,78.1,60.6,30.95,South,184,13.6,13.6,55,0.00,,,0.00,VWS V13.01,2013-05-15 23:36:00,
2013-05-15 18:37:00,78.1,60.6,30.95,South,170,13.2,13.2,55,0.00,,,0.00,VWS V13.01,2013-05-15 23:37:00,
2013-05-15 18:38:00,78.1,60.6,30.95,SSW,197,11.0,11.0,55,0.00,,,0.00,VWS V13.01,2013-05-15 23:38:00,
2013-05-15 18:41:00,77.9,60.5,30.98,SSE,168,14.5,14.5,55,0.00,,,0.00,VWS V13.01,2013-05-15 23:41:00,
2013-05-15 18:42:00,77.9,60.5,30.98,SSW,192,14.5,14.5,55,0.00,,,0.00,VWS V13.01,2013-05-15 23:42:00,
2013-05-15 18:43:00,77.9,60.5,30.98,South,179,15.0,15.0,55,0.00,,,0.00,VWS V13.01,2013-05-15 23:43:00,
2013-05-15 18:44:00,77.9,60.5,30.98,South,177,13.2,13.2,55,0.00,,,0.00,VWS V13.01,2013-05-15 23:44:00,
2013-05-15 18:47:00,77.5,60.1,30.98,SSW,193,10.1,10.1,55,0.00,,,0.00,VWS V13.01,2013-05-15 23:47:00,
2013-05-15 18:48:00,77.5,60.1,30.98,South,184,10.5,10.5,55,0.00,,,0.00,VWS V13.01,2013-05-15 23:48:00,
2013-05-15 18:49:00,77.5,60.1,30.98,SSW,193,12.8,12.8,55,0.00,,,0.00,VWS V13.01,2013-05-15 23:49:00,
2013-05-15 18:53:00,77.2,59.8,30.98,South,179,12.8,12.8,55,0.00,,,0.00,VWS V13.01,2013-05-15 23:53:00,
2013-05-15 18:54:00,77.0,59.6,30.98,South,191,10.5,10.5,55,0.00,,,0.00,VWS V13.01,2013-05-15 23:54:00,
2013-05-15 18:58:00,76.6,59.3,30.95,SSW,192,12.3,12.3,55,0.00,,,0.00,VWS V13.01,2013-05-15 23:58:00,
2013-05-15 18:59:00,76.6,59.3,30.95,South,183,10.5,10.5,55,0.00,,,0.00,VWS V13.01,2013-05-15 23:59:00,
2013-05-15 19:03:00,76.5,59.1,30.95,South,187,12.8,12.8,55,0.00,,,0.00,VWS V13.01,2013-05-16 00:03:00,
2013-05-15 19:04:00,76.3,58.9,30.95,South,178,11.0,11.0,55,0.00,,,0.00,VWS V13.01,2013-05-16 00:04:00,
2013-05-15 19:05:00,76.3,58.9,30.95,SSW,192,10.1,10.1,55,0.00,,,0.00,VWS V13.01,2013-05-16 00:05:00,
2013-05-15 19:08:00,76.3,58.9,30.95,SSW,192,8.7,8.7,55,0.00,,,0.00,VWS V13.01,2013-05-16 00:08:00,
2013-05-15 19:09:00,76.1,58.8,30.95,South,186,7.6,7.6,55,0.00,,,0.00,VWS V13.01,2013-05-16 00:09:00,
2013-05-15 19:10:00,76.1,58.8,30.95,South,190,10.1,10.1,55,0.00,,,0.00,VWS V13.01,2013-05-16 00:10:00,
2013-05-15 19:13:00,75.7,58.4,30.95,SSW,195,13.2,13.2,55,0.00,,,0.00,VWS V13.01,2013-05-16 00:13:00,
2013-05-15 19:14:00,75.7,58.4,30.95,South,191,10.1,10.1,55,0.00,,,0.00,VWS V13.01,2013-05-16 00:14:00,
2013-05-15 19:16:00,75.7,58.4,30.95,South,190,6.3,6.3,55,0.00,,,0.00,VWS V13.01,2013-05-16 00:16:00,
2013-05-15 19:18:00,75.7,58.4,30.95,South,188,10.1,10.1,55,0.00,,,0.00,VWS V13.01,2013-05-16 00:18:00,
2013-05-15 19:19:00,75.7,58.4,30.95,South,183,8.7,8.7,55,0.00,,,0.00,VWS V13.01,2013-05-16 00:19:00,
2013-05-15 19:21:00,75.7,58.4,30.95,South,184,11.0,11.0,55,0.00,,,0.00,VWS V13.01,2013-05-16 00:21:00,
2013-05-15 19:24:00,75.6,58.3,30.95,South,187,8.3,8.3,55,0.00,,,0.00,VWS V13.01,2013-05-16 00:24:00,
2013-05-15 19:25:00,75.6,58.3,30.95,South,180,7.6,7.6,55,0.00,,,0.00,VWS V13.01,2013-05-16 00:25:00,
2013-05-15 19:27:00,75.6,58.3,30.95,SSW,194,5.8,5.8,55,0.00,,,0.00,VWS V13.01,2013-05-16 00:27:00,
2013-05-15 19:29:00,75.6,58.3,30.95,South,184,6.7,6.7,55,0.00,,,0.00,VWS V13.01,2013-05-16 00:29:00,
2013-05-15 19:30:00,75.6,58.3,30.95,SSW,195,6.3,6.3,55,0.00,,,0.00,VWS V13.01,2013-05-16 00:30:00,
2013-05-15 19:32:00,75.4,58.1,30.95,SSW,194,8.3,8.3,55,0.00,,,0.00,VWS V13.01,2013-05-16 00:32:00,
2013-05-15 19:33:00,75.4,58.1,30.95,South,178,14.5,14.5,55,0.00,,,0.00,VWS V13.01,2013-05-16 00:33:00,
2013-05-15 19:34:00,75.2,57.9,30.95,South,185,10.5,10.5,55,0.00,,,0.00,VWS V13.01,2013-05-16 00:34:00,
2013-05-15 19:35:00,75.2,57.9,30.95,SSW,192,13.6,13.6,55,0.00,,,0.00,VWS V13.01,2013-05-16 00:35:00,
2013-05-15 19:37:00,75.0,57.8,30.95,South,185,10.1,10.1,55,0.00,,,0.00,VWS V13.01,2013-05-16 00:37:00,
2013-05-15 19:39:00,75.0,57.8,30.95,South,180,10.1,10.1,55,0.00,,,0.00,VWS V13.01,2013-05-16 00:39:00,
2013-05-15 19:40:00,74.7,57.4,30.95,South,174,12.3,12.3,55,0.00,,,0.00,VWS V13.01,2013-05-16 00:40:00,
2013-05-15 19:42:00,74.5,57.3,30.95,SSW,199,10.1,10.1,55,0.00,,,0.00,VWS V13.01,2013-05-16 00:42:00,
2013-05-15 19:46:00,74.1,56.9,30.95,SSE,167,10.5,10.5,55,0.00,,,0.00,VWS V13.01,2013-05-16 00:46:00,
2013-05-15 19:48:00,73.9,56.8,30.95,South,185,12.3,12.3,55,0.00,,,0.00,VWS V13.01,2013-05-16 00:48:00,
2013-05-15 19:51:00,73.8,56.6,30.95,South,189,7.6,7.6,55,0.00,,,0.00,VWS V13.01,2013-05-16 00:51:00,
2013-05-15 19:54:00,73.6,56.4,30.95,South,190,8.1,8.1,55,0.00,,,0.00,VWS V13.01,2013-05-16 00:54:00,
2013-05-15 19:56:00,73.4,56.3,30.95,South,191,8.3,8.3,55,0.00,,,0.00,VWS V13.01,2013-05-16 00:56:00,
2013-05-15 19:57:00,73.4,56.3,30.95,South,184,8.7,8.7,55,0.00,,,0.00,VWS V13.01,2013-05-16 00:57:00,
2013-05-15 19:59:00,73.2,59.0,30.95,South,179,6.3,6.3,61,0.00,,,0.00,VWS V13.01,2013-05-16 00:59:00,
2013-05-15 20:03:00,72.9,58.6,30.95,SSW,196,10.1,10.1,61,0.00,,,0.00,VWS V13.01,2013-05-16 01:03:00,
2013-05-15 20:05:00,72.9,58.6,30.95,South,177,13.2,13.2,61,0.00,,,0.00,VWS V13.01,2013-05-16 01:05:00,
2013-05-15 20:08:00,72.5,58.3,30.95,SSW,196,8.3,8.3,61,0.00,,,0.00,VWS V13.01,2013-05-16 01:08:00,
2013-05-15 20:10:00,72.5,58.3,30.95,SSW,193,8.7,8.7,61,0.00,,,0.00,VWS V13.01,2013-05-16 01:10:00,
2013-05-15 20:11:00,72.5,58.3,30.95,South,184,10.5,10.5,61,0.00,,,0.00,VWS V13.01,2013-05-16 01:11:00,
2013-05-15 20:13:00,72.5,58.3,30.95,South,182,8.3,8.3,61,0.00,,,0.00,VWS V13.01,2013-05-16 01:13:00,
2013-05-15 20:14:00,72.3,58.1,30.95,South,172,10.1,10.1,61,0.00,,,0.00,VWS V13.01,2013-05-16 01:14:00,
2013-05-15 20:15:00,72.3,58.1,30.95,SSW,205,11.0,11.0,61,0.00,,,0.00,VWS V13.01,2013-05-16 01:15:00,
2013-05-15 20:17:00,72.3,58.1,30.95,SSW,194,10.5,10.5,61,0.00,,,0.00,VWS V13.01,2013-05-16 01:17:00,
2013-05-15 20:18:00,72.1,58.0,30.95,South,177,9.2,9.2,61,0.00,,,0.00,VWS V13.01,2013-05-16 01:18:00,
2013-05-15 20:19:00,72.1,58.0,30.95,SSW,193,10.5,10.5,61,0.00,,,0.00,VWS V13.01,2013-05-16 01:19:00,
2013-05-15 20:21:00,72.1,58.0,30.95,South,186,10.5,10.5,61,0.00,,,0.00,VWS V13.01,2013-05-16 01:21:00,
2013-05-15 20:22:00,72.0,57.8,30.95,South,182,13.2,13.2,61,0.00,,,0.00,VWS V13.01,2013-05-16 01:22:00,
2013-05-15 20:24:00,72.0,57.8,30.95,South,191,8.3,8.3,61,0.00,,,0.00,VWS V13.01,2013-05-16 01:24:00,
2013-05-15 20:26:00,71.8,57.6,30.95,SSW,195,7.6,7.6,61,0.00,,,0.00,VWS V13.01,2013-05-16 01:26:00,
2013-05-15 20:28:00,71.8,57.6,30.95,South,183,10.1,10.1,61,0.00,,,0.00,VWS V13.01,2013-05-16 01:28:00,
2013-05-15 20:29:00,71.6,57.5,30.95,South,174,11.9,11.9,61,0.00,,,0.00,VWS V13.01,2013-05-16 01:29:00,
2013-05-15 20:31:00,71.8,57.6,30.95,South,179,8.7,8.7,61,0.00,,,0.00,VWS V13.01,2013-05-16 01:31:00,
2013-05-15 20:33:00,71.8,57.6,30.95,South,189,8.3,8.3,61,0.00,,,0.00,VWS V13.01,2013-05-16 01:33:00,
2013-05-15 20:34:00,71.8,57.6,30.95,South,176,10.5,10.5,61,0.00,,,0.00,VWS V13.01,2013-05-16 01:34:00,
2013-05-15 20:37:00,71.4,57.3,30.95,South,184,8.3,8.3,61,0.00,,,0.00,VWS V13.01,2013-05-16 01:37:00,
2013-05-15 20:38:00,71.4,57.3,30.95,South,191,10.1,10.1,61,0.00,,,0.00,VWS V13.01,2013-05-16 01:38:00,
2013-05-15 20:40:00,71.2,57.1,30.95,SSW,197,10.1,10.1,61,0.00,,,0.00,VWS V13.01,2013-05-16 01:40:00,
2013-05-15 20:42:00,71.2,57.1,30.95,South,180,10.1,10.1,61,0.00,,,0.00,VWS V13.01,2013-05-16 01:42:00,
2013-05-15 20:43:00,71.2,57.1,30.95,SSW,197,10.5,10.5,61,0.00,,,0.00,VWS V13.01,2013-05-16 01:43:00,
2013-05-15 20:45:00,71.2,57.1,30.95,South,173,12.3,12.3,61,0.00,,,0.00,VWS V13.01,2013-05-16 01:45:00,
2013-05-15 20:47:00,71.1,57.0,30.95,South,181,9.6,9.6,61,0.00,,,0.00,VWS V13.01,2013-05-16 01:47:00,
2013-05-15 20:49:00,70.9,56.8,30.95,SSW,195,8.7,8.7,61,0.00,,,0.00,VWS V13.01,2013-05-16 01:49:00,
2013-05-15 20:50:00,70.7,56.6,30.95,South,185,10.5,10.5,61,0.00,,,0.00,VWS V13.01,2013-05-16 01:50:00,
2013-05-15 20:51:00,70.7,56.6,30.95,South,183,8.1,8.1,61,0.00,,,0.00,VWS V13.01,2013-05-16 01:51:00,
2013-05-15 20:53:00,70.7,56.6,30.95,South,186,8.1,8.1,61,0.00,,,0.00,VWS V13.01,2013-05-16 01:53:00,
2013-05-15 20:55:00,70.5,56.4,30.95,South,188,7.6,7.6,61,0.00,,,0.00,VWS V13.01,2013-05-16 01:55:00,
2013-05-15 20:56:00,70.5,56.4,30.95,SSE,148,7.6,7.6,61,0.00,,,0.00,VWS V13.01,2013-05-16 01:56:00,
2013-05-15 20:58:00,70.5,56.4,30.95,South,177,7.6,7.6,61,0.00,,,0.00,VWS V13.01,2013-05-16 01:58:00,
2013-05-15 21:00:00,70.3,56.3,30.95,South,187,5.8,5.8,61,0.00,,,0.00,VWS V13.01,2013-05-16 02:00:00,
2013-05-15 21:01:00,70.3,56.3,30.95,South,177,5.8,5.8,61,0.00,,,0.00,VWS V13.01,2013-05-16 02:01:00,
2013-05-15 21:03:00,70.2,56.1,30.95,South,177,7.6,7.6,61,0.00,,,0.00,VWS V13.01,2013-05-16 02:03:00,
2013-05-15 21:06:00,70.2,56.1,30.95,SSW,198,8.7,8.7,61,0.00,,,0.00,VWS V13.01,2013-05-16 02:06:00,
2013-05-15 21:07:00,70.2,56.1,30.95,South,190,8.3,8.3,61,0.00,,,0.00,VWS V13.01,2013-05-16 02:07:00,
2013-05-15 21:09:00,70.2,56.1,30.95,South,186,8.1,8.1,61,0.00,,,0.00,VWS V13.01,2013-05-16 02:09:00,
2013-05-15 21:12:00,70.2,56.1,30.95,South,185,8.7,8.7,61,0.00,,,0.00,VWS V13.01,2013-05-16 02:12:00,
2013-05-15 21:15:00,70.2,56.1,30.95,South,179,8.7,8.7,61,0.00,,,0.00,VWS V13.01,2013-05-16 02:15:00,
2013-05-15 21:17:00,70.0,55.9,30.95,South,174,7.2,7.2,61,0.00,,,0.00,VWS V13.01,2013-05-16 02:17:00,
2013-05-15 21:18:00,70.0,55.9,30.95,South,189,9.2,9.2,61,0.00,,,0.00,VWS V13.01,2013-05-16 02:18:00,
2013-05-15 21:21:00,70.0,55.9,30.95,South,178,7.6,7.6,61,0.00,,,0.00,VWS V13.01,2013-05-16 02:21:00,
2013-05-15 21:22:00,70.0,55.9,30.95,SSW,193,8.7,8.7,61,0.00,,,0.00,VWS V13.01,2013-05-16 02:22:00,
2013-05-15 21:24:00,69.8,55.8,30.95,South,170,8.1,8.1,61,0.00,,,0.00,VWS V13.01,2013-05-16 02:24:00,
2013-05-15 21:25:00,70.0,55.9,30.95,South,181,12.8,12.8,61,0.00,,,0.00,VWS V13.01,2013-05-16 02:25:00,
2013-05-15 21:26:00,70.0,55.9,30.95,South,185,11.0,11.0,61,0.00,,,0.00,VWS V13.01,2013-05-16 02:26:00,
2013-05-15 21:28:00,70.0,55.9,30.95,SSW,198,9.6,9.6,61,0.00,,,0.00,VWS V13.01,2013-05-16 02:28:00,
2013-05-15 21:29:00,70.0,55.9,30.95,SSW,199,11.9,11.9,61,0.00,,,0.00,VWS V13.01,2013-05-16 02:29:00,
2013-05-15 21:30:00,70.0,55.9,30.95,South,187,8.3,8.3,61,0.00,,,0.00,VWS V13.01,2013-05-16 02:30:00,
2013-05-15 21:32:00,69.8,55.8,30.95,South,189,8.1,8.1,61,0.00,,,0.00,VWS V13.01,2013-05-16 02:32:00,
2013-05-15 21:33:00,69.8,55.8,30.95,SSW,204,8.3,8.3,61,0.00,,,0.00,VWS V13.01,2013-05-16 02:33:00,
2013-05-15 21:35:00,70.0,55.9,30.95,South,191,10.5,10.5,61,0.00,,,0.00,VWS V13.01,2013-05-16 02:35:00,
2013-05-15 21:39:00,69.8,55.8,30.95,South,190,11.0,11.0,61,0.00,,,0.00,VWS V13.01,2013-05-16 02:39:00,
2013-05-15 21:40:00,69.8,55.8,30.95,South,172,8.7,8.7,61,0.00,,,0.00,VWS V13.01,2013-05-16 02:40:00,
2013-05-15 21:44:00,69.8,55.8,30.98,South,183,12.3,12.3,61,0.00,,,0.00,VWS V13.01,2013-05-16 02:44:00,
2013-05-15 21:45:00,69.6,58.2,30.98,South,190,8.3,8.3,67,0.00,,,0.00,VWS V13.01,2013-05-16 02:45:00,
2013-05-15 21:50:00,69.4,58.0,30.98,South,172,8.1,8.1,67,0.00,,,0.00,VWS V13.01,2013-05-16 02:50:00,
2013-05-15 21:51:00,69.4,58.0,30.98,SSW,196,6.3,6.3,67,0.00,,,0.00,VWS V13.01,2013-05-16 02:51:00,
2013-05-15 21:55:00,69.3,57.8,30.98,South,185,5.4,5.4,67,0.00,,,0.00,VWS V13.01,2013-05-16 02:55:00,
2013-05-15 21:56:00,69.3,57.8,30.98,South,189,8.3,8.3,67,0.00,,,0.00,VWS V13.01,2013-05-16 02:56:00,
2013-05-15 22:00:00,69.1,57.7,30.98,SSW,194,6.3,6.3,67,0.00,,,0.00,VWS V13.01,2013-05-16 03:00:00,
2013-05-15 22:01:00,69.1,57.7,30.98,South,188,6.7,6.7,67,0.00,,,0.00,VWS V13.01,2013-05-16 03:01:00,
2013-05-15 22:02:00,68.9,57.5,30.98,South,177,4.9,4.9,67,0.00,,,0.00,VWS V13.01,2013-05-16 03:02:00,
2013-05-15 22:05:00,68.9,57.5,30.98,SSW,195,8.1,8.1,67,0.00,,,0.00,VWS V13.01,2013-05-16 03:05:00,
2013-05-15 22:06:00,68.7,57.3,30.98,South,189,6.7,6.7,67,0.00,,,0.00,VWS V13.01,2013-05-16 03:06:00,
2013-05-15 22:08:00,68.9,57.5,30.98,South,182,11.0,11.0,67,0.00,,,0.00,VWS V13.01,2013-05-16 03:08:00,
2013-05-15 22:10:00,68.9,57.5,30.98,South,190,7.6,7.6,67,0.00,,,0.00,VWS V13.01,2013-05-16 03:10:00,
2013-05-15 22:11:00,68.9,57.5,30.98,SSW,194,8.3,8.3,67,0.00,,,0.00,VWS V13.01,2013-05-16 03:11:00,
2013-05-15 22:13:00,68.9,57.5,30.98,South,188,9.2,9.2,67,0.00,,,0.00,VWS V13.01,2013-05-16 03:13:00,
2013-05-15 22:16:00,68.7,57.3,30.98,SSW,195,8.3,8.3,67,0.00,,,0.00,VWS V13.01,2013-05-16 03:16:00,
2013-05-15 22:17:00,68.5,57.2,30.98,South,190,8.1,8.1,67,0.00,,,0.00,VWS V13.01,2013-05-16 03:17:00,
2013-05-15 22:18:00,68.7,57.3,30.98,South,187,8.3,8.3,67,0.00,,,0.00,VWS V13.01,2013-05-16 03:18:00,
2013-05-15 22:21:00,68.7,48.8,30.98,South,185,8.7,8.7,49,0.00,,,0.00,VWS V13.01,2013-05-16 03:21:00,
2013-05-15 22:22:00,68.7,48.8,30.98,South,184,7.6,7.6,49,0.00,,,0.00,VWS V13.01,2013-05-16 03:22:00,
2013-05-15 22:24:00,68.7,48.8,30.98,SSE,150,7.6,7.6,49,0.00,,,0.00,VWS V13.01,2013-05-16 03:24:00,
2013-05-15 22:26:00,68.5,48.6,30.98,SSW,194,6.3,6.3,49,0.00,,,0.00,VWS V13.01,2013-05-16 03:26:00,
2013-05-15 22:28:00,68.4,48.5,31.01,South,178,5.4,5.4,49,0.00,,,0.00,VWS V13.01,2013-05-16 03:28:00,
2013-05-15 22:29:00,68.4,48.5,31.01,South,186,6.3,6.3,49,0.00,,,0.00,VWS V13.01,2013-05-16 03:29:00,
2013-05-15 22:31:00,68.0,56.7,31.01,South,184,6.3,6.3,67,0.00,,,0.00,VWS V13.01,2013-05-16 03:31:00,
2013-05-15 22:32:00,67.8,56.5,31.01,South,185,5.4,5.4,67,0.00,,,0.00,VWS V13.01,2013-05-16 03:32:00,
2013-05-15 22:33:00,67.8,56.5,31.01,South,191,4.0,4.0,67,0.00,,,0.00,VWS V13.01,2013-05-16 03:33:00,
2013-05-15 22:34:00,67.6,56.3,31.01,South,191,4.0,4.0,67,0.00,,,0.00,VWS V13.01,2013-05-16 03:34:00,
2013-05-15 22:37:00,67.3,56.0,31.01,South,170,5.8,5.8,67,0.00,,,0.00,VWS V13.01,2013-05-16 03:37:00,
2013-05-15 22:38:00,67.3,56.0,31.01,South,178,6.3,6.3,67,0.00,,,0.00,VWS V13.01,2013-05-16 03:38:00,
2013-05-15 22:39:00,67.3,56.0,31.01,South,181,4.9,4.9,67,0.00,,,0.00,VWS V13.01,2013-05-16 03:39:00,
2013-05-15 22:43:00,66.9,55.6,30.98,South,179,2.7,2.7,67,0.00,,,0.00,VWS V13.01,2013-05-16 03:43:00,
2013-05-15 22:44:00,66.7,55.5,30.98,South,180,2.7,2.7,67,0.00,,,0.00,VWS V13.01,2013-05-16 03:44:00,
2013-05-15 22:48:00,66.2,54.9,30.98,South,180,0.0,0.0,67,0.00,,,0.00,VWS V13.01,2013-05-16 03:48:00,
2013-05-15 22:49:00,66.0,54.8,30.98,South,180,0.0,0.0,67,0.00,,,0.00,VWS V13.01,2013-05-16 03:49:00,
2013-05-15 22:51:00,66.0,54.8,30.98,South,180,0.0,0.0,67,0.00,,,0.00,VWS V13.01,2013-05-16 03:51:00,
2013-05-15 22:53:00,65.7,54.4,30.98,South,180,0.0,0.0,67,0.00,,,0.00,VWS V13.01,2013-05-16 03:53:00,
2013-05-15 22:54:00,65.5,54.2,30.98,South,180,0.0,0.0,67,0.00,,,0.00,VWS V13.01,2013-05-16 03:54:00,
2013-05-15 22:56:00,65.3,54.1,30.98,South,180,0.0,0.0,67,0.00,,,0.00,VWS V13.01,2013-05-16 03:56:00,
2013-05-15 22:58:00,65.3,54.1,31.01,South,180,0.0,0.0,67,0.00,,,0.00,VWS V13.01,2013-05-16 03:58:00,
2013-05-15 23:00:00,65.1,53.9,31.01,South,180,0.0,0.0,67,0.00,,,0.00,VWS V13.01,2013-05-16 04:00:00,
2013-05-15 23:01:00,65.1,53.9,31.01,South,180,0.0,0.0,67,0.00,,,0.00,VWS V13.01,2013-05-16 04:01:00,
2013-05-15 23:06:00,65.3,60.7,31.01,South,180,0.0,0.0,85,0.00,,,0.00,VWS V13.01,2013-05-16 04:06:00,
2013-05-15 23:11:00,66.0,54.8,31.01,South,178,3.6,3.6,67,0.00,,,0.00,VWS V13.01,2013-05-16 04:11:00,
2013-05-15 23:16:00,65.7,54.4,31.01,South,181,2.2,2.2,67,0.00,,,0.00,VWS V13.01,2013-05-16 04:16:00,
2013-05-15 23:21:00,65.5,54.2,31.01,South,181,4.0,4.0,67,0.00,,,0.00,VWS V13.01,2013-05-16 04:21:00,
2013-05-15 23:26:00,65.5,54.2,31.01,South,182,2.7,2.7,67,0.00,,,0.00,VWS V13.01,2013-05-16 04:26:00,
2013-05-15 23:31:00,64.8,53.6,31.01,South,182,0.0,0.0,67,0.00,,,0.00,VWS V13.01,2013-05-16 04:31:00,
2013-05-15 23:36:00,64.9,53.7,31.01,South,182,0.0,0.0,67,0.00,,,0.00,VWS V13.01,2013-05-16 04:36:00,
2013-05-15 23:41:00,64.4,53.2,30.98,South,182,0.0,0.0,67,0.00,,,0.00,VWS V13.01,2013-05-16 04:41:00,
2013-05-15 23:46:00,64.0,55.2,30.98,South,182,0.0,0.0,73,0.00,,,0.00,VWS V13.01,2013-05-16 04:46:00,
2013-05-15 23:51:00,63.7,54.9,30.98,South,182,0.0,0.0,73,0.00,,,0.00,VWS V13.01,2013-05-16 04:51:00,
2013-05-15 23:52:00,63.5,54.7,30.98,South,182,0.0,0.0,73,0.00,,,0.00,VWS V13.01,2013-05-16 04:52:00,
2013-05-15 23:56:00,63.0,54.2,30.98,South,182,0.0,0.0,73,0.00,,,0.00,VWS V13.01,2013-05-16 04:56:00,
2013-05-15 23:57:00,63.0,54.2,30.98,South,182,0.0,0.0,73,0.00,,,0.00,VWS V13.01,2013-05-16 04:57:00,